                ,  0.301,  0.397,  0.494,  0.590,  0.687,  0.784,  0.880,  0.977,  1.073,  1.170,  1.267,  1.363,  1.460,  1.556,  1.653,  1.749,  1.846,  1.943,  2.039,  2.136,  2.232,  2.329,  2.426,  2.522,  2.619,  2.715,  2.812,  2.909,  3.005,  3.102,  3.198,  3.295,  3.392,  3.488,  3.585,  3.681,  3.778,  3.875,  3.971,  4.068,  4.164,  4.261,  4.357,  4.454,  4.551,  4.647,  4.744,  4.840,  4.937,  5.034,  5.130,  5.227,  5.323,  5.420,  5.517,  5.613,  5.710,  5.806,  5.903,  6.000,  6.096,  6.193,  6.289,  6.386,  6.483,  6.579,  6.676,  6.772,  6.869,  6.965,  7.062,  7.159,  7.255,  7.352,  7.448,  7.545,  7.642,  7.738,  7.835,  7.931
2015/02/15 00:00,  999.0,  999.0,   -0.1,  999.0,  999.0,  999.0,  999.0,  999.0,  999.0,  999.0,    1.3,    0.7,    0.5,    0.2,    0.1,    0.3,    0.4,    0.5,    0.2,    0.0,    0.0,   -0.0,    0.0,    0.1,    0.2,   -0.0,    0.0,    0.3,    0.1,   -0.0,    0.1,   -0.2,    0.5,  999.0,   -0.1,   -0.4,   -0.1,  999.0,   -0.2,    0.2,    0.0,   -0.4,    0.2,   -0.7,   -0.2,    0.3,    0.1,    0.4,   -0.0,   -0.2,   -0.3,   -0.1,   -0.3,   -0.3,   -0.4,   -0.2,  999.0,    0.2,  999.0,  999.0,    0.0,   -0.3,    0.1,    0.2,  999.0,  999.0,  999.0,  999.0,  999.0,  999.0,  999.0,  999.0,  999.0,  999.0,  999.0,  999.0,  999.0,  999.0,  999.0,  999.0
2015/02/15 00:10,  999.0,  999.0,   -0.2,    0.2,    0.4,    0.8,    1.0,    1.0,    0.6,    1.2,    1.3,    0.8,    1.1,    0.6,    0.2,    0.6,    1.2,    1.1,    1.0,    0.2,    0.1,    0.1,    0.3,   -0.0,    0.1,    0.2,    0.1,   -0.2,   -0.1,    0.2,   -0.1,   -0.1,  999.0,    0.2,    0.1,   -0.1,    0.0,    0.2,    0.4,    0.0,   -0.6,   -0.2,   -0.0,    0.0,    0.1,   -0.1,    0.2,    0.2,   -0.1,    0.1,    0.4,    0.2,    0.2,  999.0,   -0.0,    0.4,    0.2,    0.2,   -0.3,    0.3,    0.1,   -0.1,   -0.2,   -0.2,   -0.1,    0.1,  999.0,   -0.2,   -0.2,  999.0,  999.0,  999.0,  999.0,  999.0,  999.0,  999.0,  999.0,  999.0,  999.0,  999.0
2015/02/15 00:20,  999.0,    0.5,    0.9,    2.2,    2.0,    3.2,    2.5,    2.0,    2.1,    1.7,    2.7,    1.8,    1.4,    1.3,    1.6,    1.2,    1.4,    2.3,    3.1,    1.8,    1.7,    1.2,    0.8,    1.0,    0.6,    0.1,    0.1,    0.3,    0.0,    0.1,    0.1,   -0.1,    0.4,    0.1,   -0.1,   -0.1,   -0.1,    0.2,   -0.1,   -0.1,   -0.9,  999.0,    0.1,   -0.1,   -0.2,    0.2,   -0.1,    0.0,    0.0,   -0.3,   -0.0,    0.1,    0.3,    0.4,    0.0,   -0.2,   -0.3,    0.2,    0.2,    0.0,   -0.1,    0.0,    0.0,   -0.1,   -0.1,  999.0,    0.1,   -0.1,   -0.5,  999.0,  999.0,  999.0,  999.0,  999.0,  999.0,  999.0,  999.0,  999.0,  999.0,  999.0
2015/02/15 00:30,  999.0,    0.8,    1.7,    2.4,    1.3,    1.5,    1.4,    1.3,    1.2,    1.2,    1.3,    1.3,    0.4,    0.9,    0.9,    1.8,    1.9,    2.3,    3.1,    1.4,    0.7,    0.7,   -0.1,    0.1,    0.3,    0.3,   -0.2,    0.2,    0.0,    0.0,    0.4,    0.1,   -0.0,    0.4,    0.1,    0.2,  999.0,    0.1,    0.5,    0.0,   -0.1,   -0.4,  999.0,  999.0,   -0.2,    0.1,    0.3,  999.0,   -0.1,  999.0,  999.0,  999.0,  999.0,    0.4,   -0.1,    0.1,    0.2,    0.0,   -0.1,    0.0,  999.0,    0.2,  999.0,   -0.1,    0.1,  999.0,  999.0,  999.0,  999.0,  999.0,  999.0,  999.0,  999.0,  999.0,  999.0,  999.0,  999.0,  999.0,  999.0,  999.0
2015/02/15 00:40,  999.0,   -0.0,    0.2,    0.1,    0.4,    0.5,    0.4,    0.2,    0.3,    1.1,    1.9,    1.5,    1.4,    1.4,    1.1,    0.9,    0.5,    0.4,    1.5,    1.1,    1.1,    0.8,    0.2,    0.6,    0.3,    0.5,    0.2,   -0.0,    0.0,   -0.0,    0.0,    0.0,    0.0,   -0.1,   -0.0,    0.1,   -0.1,    0.1,  999.0,   -0.3,  999.0,   -1.0,  999.0,   -0.1,   -0.1,   -0.2,    0.1,  999.0,  999.0,    0.2,    0.1,    0.1,  999.0,   -0.0,    0.2,    0.1,    0.2,    0.2,   -0.1,    0.1,    0.0,    0.0,    0.2,    0.2,   -0.0,  999.0,  999.0,    0.5,  999.0,  999.0,  999.0,  999.0,  999.0,  999.0,  999.0,  999.0,  999.0,  999.0,  999.0,  999.0
2015/02/15 00:50,  999.0,    0.0,    0.1,    0.3,    0.4,    0.3,    0.3,    0.4,    0.5,    0.5,    1.3,    1.0,    1.1,    0.8,    4.1,    0.7,    0.7,    0.6,    0.7,    0.3,    0.3,    5.3,   -0.0,    0.1,    4.6,    4.4,   -0.1,    0.1,    0.1,    0.1,    0.2,    0.0,    0.0,   -0.1,   -0.2,    0.0,    0.1,  999.0,    0.2,   -0.1,   -0.2,   -0.2,  999.0,   -0.1,  999.0,   -0.3,   -0.2,    0.0,  999.0,  999.0,    0.2,  999.0,    0.2,  999.0,   -0.2,    0.4,    0.1,   -0.2,   -0.3,    0.1,    0.3,   -0.3,    0.0,    0.1,    0.2,   -0.3,  999.0,  999.0,   -0.1,  999.0,  999.0,  999.0,  999.0,  999.0,  999.0,  999.0,  999.0,  999.0,  999.0,  999.0
2015/02/15 01:00,  999.0,    0.2,    0.9,    1.5,    1.1,    0.7,    3.3,    3.5,    4.2,    2.8,    4.2,    3.5,  999.0,   11.8,   12.6,   13.2,   15.5,   15.3,   16.5,   15.9,   24.7,   10.2,    8.5,  999.0,  999.0,  999.0,  999.0,   -1.2,   -0.1,  999.0,   -0.2,   -0.6,    3.3,  999.0,  999.0,  999.0,  999.0,  999.0,  999.0,  999.0,  999.0,  999.0,  999.0,   -0.3,   -0.4,   -0.0,    0.0,  999.0,  999.0,  999.0,  999.0,  999.0,   -0.2,   -0.0,   -0.3,   -0.3,    0.2,   -0.0,   -0.2,   -0.2,    0.1,   -0.2,   -0.1,   -0.1,  999.0,    0.2,  999.0,  999.0,  999.0,  999.0,  999.0,  999.0,  999.0,  999.0,  999.0,  999.0,  999.0,  999.0,  999.0,  999.0
2015/02/15 01:10,  999.0,    0.3,    0.8,    2.9,  999.0,    7.5,    7.7,    9.1,    9.8,   11.3,   11.7,   13.3,   16.9,   16.7,   19.2,   19.5,   21.5,   24.0,   25.4,   25.9,   27.1,   27.5,   26.1,   24.3,   24.2,   22.7,  999.0,  999.0,  999.0,  999.0,   -0.5,   -0.0,  999.0,  999.0,  999.0,  999.0,  999.0,  999.0,  999.0,  999.0,  999.0,  999.0,  999.0,  999.0,  999.0,   -0.2,   -0.2,   -0.0,    0.2,    0.4,    0.2,   -0.0,    0.4,    0.0,    0.3,  999.0,    0.2,    0.1,    0.0,   -0.0,    0.0,    0.4,  999.0,    0.4,   -0.1,  999.0,  999.0,  999.0,  999.0,  999.0,  999.0,  999.0,  999.0,  999.0,  999.0,  999.0,  999.0,  999.0,  999.0,  999.0
2015/02/15 01:20,  999.0,    3.3,    3.2,    7.9,    7.7,    9.0,  999.0,   10.9,   12.2,   10.4,   13.1,   12.5,   13.6,   10.4,   13.3,   20.4,   21.4,   21.5,   22.0,   22.5,   22.9,   22.9,   23.1,   22.8,   22.6,   22.5,   23.1,   22.6,   22.8,  999.0,  999.0,  999.0,  999.0,  999.0,  999.0,  999.0,  999.0,  999.0,  999.0,  999.0,  999.0,  999.0,  999.0,  999.0,  999.0,  999.0,  999.0,  999.0,  999.0,  999.0,  999.0,    0.1,  999.0,  999.0,  999.0,  999.0,  999.0,  999.0,  999.0,  999.0,  999.0,  999.0,  999.0,   -0.0,  999.0,  999.0,  999.0,  999.0,  999.0,  999.0,  999.0,  999.0,  999.0,  999.0,  999.0,  999.0,  999.0,  999.0,  999.0,  999.0
2015/02/15 01:30,  999.0,    5.1,    5.4,    6.9,    7.5,    7.6,    8.2,    8.0,    8.4,    8.6,    9.0,   10.6,   13.4,   14.5,   16.2,   16.8,   18.0,   19.3,   20.3,   20.9,   21.5,   21.3,   21.8,   22.8,   23.2,   24.2,   24.7,   25.8,  999.0,  999.0,  999.0,  999.0,  999.0,  999.0,   -0.2,  999.0,   -1.0,  999.0,  999.0,  999.0,  999.0,  999.0,  999.0,  999.0,  999.0,  999.0,  999.0,  999.0,  999.0,  999.0,  999.0,    0.1,  999.0,  999.0,   -0.0,  999.0,  999.0,  999.0,  999.0,  999.0,  999.0,  999.0,  999.0,  999.0,  999.0,  999.0,  999.0,  999.0,  999.0,  999.0,  999.0,  999.0,  999.0,  999.0,  999.0,  999.0,  999.0,  999.0,  999.0,  999.0
2015/02/15 01:40,  999.0,  999.0,    7.5,    8.0,    7.4,    8.2,    9.2,    9.3,   10.2,   11.4,   12.6,   13.4,   14.7,   16.4,   16.7,   17.2,   18.8,   18.7,   19.4,   20.0,   20.7,   19.9,   21.5,   24.1,   25.3,   26.8,   26.5,   25.8,   27.8,  999.0,  999.0,  999.0,  999.0,  999.0,  999.0,  999.0,  999.0,  999.0,  999.0,  999.0,  999.0,  999.0,  999.0,  999.0,  999.0,  999.0,  999.0,  999.0,  999.0,  999.0,  999.0,  999.0,  999.0,  999.0,  999.0,  999.0,  999.0,  999.0,  999.0,  999.0,  999.0,  999.0,  999.0,  999.0,  999.0,  999.0,  999.0,  999.0,  999.0,  999.0,  999.0,  999.0,  999.0,  999.0,  999.0,  999.0,  999.0,  999.0,  999.0,  999.0
2015/02/15 01:50,  999.0,    4.7,    5.9,    8.3,    9.3,    9.7,   11.0,   10.2,   11.9,   12.1,   12.3,   12.9,   14.0,   14.2,   15.2,   15.7,   17.8,   19.7,   20.3,   21.2,   21.4,   23.4,   24.0,   25.6,   26.1,   26.4,   26.6,   28.0,   28.1,   28.4,  999.0,   26.2,  999.0,  999.0,  999.0,  999.0,  999.0,  999.0,  999.0,  999.0,  999.0,  999.0,  999.0,  999.0,  999.0,  999.0,  999.0,  999.0,  999.0,  999.0,  999.0,  999.0,  999.0,  999.0,  999.0,  999.0,  999.0,  999.0,  999.0,  999.0,  999.0,  999.0,  999.0,  999.0,  999.0,  999.0,  999.0,  999.0,  999.0,  999.0,  999.0,  999.0,  999.0,  999.0,  999.0,  999.0,  999.0,  999.0,  999.0,  999.0
2015/02/15 02:00,  999.0,    3.6,    4.7,    3.9,    4.7,    5.6,    6.5,    7.2,    7.9,    8.9,   10.0,   11.4,   12.5,   14.2,   15.9,   16.8,   17.5,   18.6,   20.6,   21.3,   21.4,   22.8,   23.7,   25.0,   24.9,   25.3,   27.0,   28.2,   28.7,   31.7,  999.0,  999.0,  999.0,  999.0,  999.0,  999.0,  999.0,  999.0,  999.0,  999.0,  999.0,  999.0,  999.0,  999.0,  999.0,  999.0,  999.0,  999.0,  999.0,  999.0,  999.0,  999.0,  999.0,  999.0,  999.0,  999.0,  999.0,  999.0,  999.0,  999.0,  999.0,  999.0,  999.0,  999.0,  999.0,  999.0,  999.0,  999.0,  999.0,  999.0,  999.0,  999.0,  999.0,  999.0,  999.0,  999.0,  999.0,  999.0,  999.0,  999.0
2015/02/15 02:10,  999.0,    1.8,    2.0,    3.0,    3.7,    4.9,    6.5,    7.5,    8.0,   10.3,   10.1,   12.8,   14.0,   16.6,   16.5,   17.6,   18.6,   19.5,   20.9,   22.2,   23.8,   24.2,   24.9,   27.3,   26.7,   27.8,   26.6,   27.2,   27.9,   27.8,   30.0,  999.0,  999.0,  999.0,  999.0,  999.0,  999.0,  999.0,  999.0,  999.0,  999.0,  999.0,  999.0,  999.0,  999.0,  999.0,  999.0,  999.0,  999.0,  999.0,  999.0,  999.0,  999.0,  999.0,  999.0,  999.0,  999.0,  999.0,  999.0,  999.0,  999.0,  999.0,  999.0,  999.0,  999.0,  999.0,  999.0,  999.0,  999.0,  999.0,  999.0,  999.0,  999.0,  999.0,  999.0,  999.0,  999.0,  999.0,  999.0,  999.0
2015/02/15 02:20,  999.0,    3.6,    3.1,    2.0,    4.0,    5.7,    6.6,    8.6,   10.6,   11.3,   12.6,   14.8,   16.7,   17.5,   18.2,   20.7,   20.7,   20.5,   21.2,   21.6,   23.6,   23.5,   24.9,   24.2,   25.1,   25.2,   27.2,   25.1,   27.3,   28.1,  999.0,  999.0,  999.0,  999.0,  999.0,  999.0,  999.0,  999.0,  999.0,  999.0,  999.0,  999.0,  999.0,  999.0,  999.0,  999.0,  999.0,  999.0,  999.0,  999.0,  999.0,  999.0,  999.0,  999.0,  999.0,  999.0,  999.0,  999.0,  999.0,  999.0,  999.0,  999.0,  999.0,  999.0,  999.0,  999.0,  999.0,  999.0,  999.0,  999.0,  999.0,  999.0,  999.0,  999.0,  999.0,  999.0,  999.0,  999.0,  999.0,  999.0
2015/02/15 02:30,  999.0,    3.2,    4.2,    4.0,    3.6,    6.0,    8.4,    8.4,   11.2,   14.1,   16.0,   16.8,   16.6,   20.2,   21.1,   21.4,   23.6,   25.5,   25.6,   25.1,   25.5,   26.5,   26.7,   26.5,   26.7,   25.9,   27.2,  999.0,  999.0,  999.0,  999.0,  999.0,  999.0,  999.0,  999.0,  999.0,  999.0,  999.0,  999.0,  999.0,  999.0,  999.0,  999.0,  999.0,  999.0,  999.0,  999.0,  999.0,  999.0,  999.0,  999.0,  999.0,  999.0,  999.0,  999.0,  999.0,  999.0,  999.0,  999.0,  999.0,  999.0,  999.0,  999.0,  999.0,  999.0,  999.0,  999.0,  999.0,  999.0,  999.0,  999.0,  999.0,  999.0,  999.0,  999.0,  999.0,  999.0,  999.0,  999.0,  999.0
2015/02/15 02:40,  999.0,    2.9,    3.5,    4.4,    5.3,    6.5,    8.9,   10.2,   11.7,   12.0,   14.4,   15.6,   16.4,   17.0,   17.6,   18.8,   19.6,   20.2,   20.8,   21.2,   21.9,   21.9,   23.3,   23.2,   23.6,   24.6,   25.5,  999.0,  999.0,  999.0,  999.0,  999.0,  999.0,  999.0,  999.0,  999.0,  999.0,  999.0,  999.0,  999.0,  999.0,  999.0,  999.0,  999.0,  999.0,  999.0,  999.0,  999.0,  999.0,  999.0,  999.0,  999.0,  999.0,  999.0,  999.0,  999.0,  999.0,  999.0,  999.0,  999.0,  999.0,  999.0,  999.0,  999.0,  999.0,  999.0,  999.0,  999.0,  999.0,  999.0,  999.0,  999.0,  999.0,  999.0,  999.0,  999.0,  999.0,  999.0,  999.0,  999.0
2015/02/15 02:50,  999.0,    0.7,    2.5,    4.0,    6.6,    9.1,   10.8,   11.8,   12.9,   14.2,   15.0,   15.7,   16.1,   16.6,   17.4,   18.1,   18.9,   19.7,   20.5,   21.8,   22.4,   22.9,   23.5,   24.6,   24.2,   26.7,   28.1,   29.3,  999.0,  999.0,  999.0,  999.0,  999.0,  999.0,  999.0,  999.0,  999.0,  999.0,  999.0,  999.0,  999.0,  999.0,  999.0,  999.0,  999.0,  999.0,  999.0,  999.0,  999.0,  999.0,  999.0,  999.0,  999.0,  999.0,  999.0,  999.0,  999.0,  999.0,  999.0,  999.0,  999.0,  999.0,  999.0,  999.0,  999.0,  999.0,  999.0,  999.0,  999.0,  999.0,  999.0,  999.0,  999.0,  999.0,  999.0,  999.0,  999.0,  999.0,  999.0,  999.0
2015/02/15 03:00,  999.0,    3.0,    4.2,    5.7,    8.5,   11.0,   12.5,   13.3,   14.3,   14.9,   16.2,   17.3,   17.7,   17.9,   18.8,   19.0,   19.0,   19.8,   20.1,   22.0,   21.4,   22.8,   24.5,   25.0,   26.9,   29.4,   30.1,  999.0,  999.0,  999.0,  999.0,  999.0,  999.0,  999.0,  999.0,  999.0,  999.0,  999.0,  999.0,  999.0,  999.0,  999.0,  999.0,  999.0,  999.0,  999.0,  999.0,  999.0,  999.0,  999.0,  999.0,  999.0,  999.0,  999.0,  999.0,  999.0,  999.0,  999.0,  999.0,  999.0,  999.0,  999.0,  999.0,  999.0,  999.0,  999.0,  999.0,  999.0,  999.0,  999.0,  999.0,  999.0,  999.0,  999.0,  999.0,  999.0,  999.0,  999.0,  999.0,  999.0
2015/02/15 03:10,  999.0,    1.8,    5.9,    7.3,    8.4,   10.0,   13.0,   14.1,   16.1,   17.8,   19.8,   19.5,   19.6,   19.5,   21.0,   22.8,   23.3,   24.9,   24.3,   24.8,   24.3,   24.4,   26.5,   27.5,   31.2,   31.6,  999.0,  999.0,  999.0,  999.0,  999.0,  999.0,  999.0,  999.0,  999.0,  999.0,  999.0,  999.0,  999.0,  999.0,  999.0,  999.0,  999.0,  999.0,  999.0,  999.0,  999.0,  999.0,  999.0,  999.0,  999.0,  999.0,  999.0,  999.0,  999.0,  999.0,  999.0,  999.0,  999.0,  999.0,  999.0,  999.0,  999.0,  999.0,  999.0,  999.0,  999.0,  999.0,  999.0,  999.0,  999.0,  999.0,  999.0,  999.0,  999.0,  999.0,  999.0,  999.0,  999.0,  999.0
2015/02/15 03:20,  999.0,    5.9,    8.1,   10.8,   12.6,   13.6,   15.2,   16.0,   16.3,   16.5,   18.5,   19.6,   18.9,   21.6,   23.5,   23.1,   25.3,   27.2,   28.1,   29.8,   32.5,   32.0,   32.7,   35.3,   31.6,  999.0,  999.0,  999.0,  999.0,  999.0,  999.0,  999.0,  999.0,  999.0,  999.0,  999.0,  999.0,  999.0,  999.0,  999.0,  999.0,  999.0,  999.0,  999.0,  999.0,  999.0,  999.0,  999.0,  999.0,  999.0,  999.0,  999.0,  999.0,  999.0,  999.0,  999.0,  999.0,  999.0,  999.0,  999.0,  999.0,  999.0,  999.0,  999.0,  999.0,  999.0,  999.0,  999.0,  999.0,  999.0,  999.0,  999.0,  999.0,  999.0,  999.0,  999.0,  999.0,  999.0,  999.0,  999.0
2015/02/15 03:30,  999.0,   10.1,    9.4,   11.0,   12.7,   13.1,   13.2,   14.7,   15.3,   16.6,   17.8,   19.0,   19.9,   21.5,   22.9,   22.6,   23.7,   25.1,   27.4,  999.0,   32.4,   30.6,  999.0,  999.0,  999.0,  999.0,  999.0,  999.0,  999.0,  999.0,  999.0,  999.0,  999.0,  999.0,  999.0,  999.0,  999.0,  999.0,  999.0,  999.0,  999.0,  999.0,  999.0,  999.0,  999.0,  999.0,  999.0,  999.0,  999.0,  999.0,  999.0,  999.0,  999.0,  999.0,  999.0,  999.0,  999.0,  999.0,  999.0,  999.0,  999.0,  999.0,  999.0,  999.0,  999.0,  999.0,  999.0,  999.0,  999.0,  999.0,  999.0,  999.0,  999.0,  999.0,  999.0,  999.0,  999.0,  999.0,  999.0,  999.0
2015/02/15 03:40,  999.0,    8.3,    8.7,   10.3,   11.5,   12.3,   13.3,   14.0,   14.6,   14.6,   15.8,   16.7,   18.7,   20.0,   20.6,   21.3,   21.7,   22.6,   23.6,   25.0,   24.2,   24.8,   25.5,   26.8,   29.5,   28.8,  999.0,  999.0,  999.0,  999.0,  999.0,  999.0,  999.0,  999.0,  999.0,  999.0,  999.0,  999.0,  999.0,  999.0,  999.0,  999.0,  999.0,  999.0,  999.0,  999.0,  999.0,  999.0,  999.0,  999.0,  999.0,  999.0,  999.0,  999.0,  999.0,  999.0,  999.0,  999.0,  999.0,  999.0,  999.0,  999.0,  999.0,  999.0,  999.0,  999.0,  999.0,  999.0,  999.0,  999.0,  999.0,  999.0,  999.0,  999.0,  999.0,  999.0,  999.0,  999.0,  999.0,  999.0
2015/02/15 03:50,  999.0,  999.0,    9.7,   10.4,   10.9,   11.3,   11.5,   11.9,   12.4,   13.0,   14.1,   14.7,   15.9,   17.0,   17.7,   18.4,   18.1,   20.0,   20.9,   22.8,   24.7,   25.1,  999.0,  999.0,  999.0,  999.0,  999.0,  999.0,  999.0,    0.1,   -0.0,    0.1,   -0.1,   -0.0,   -0.4,  999.0,   -0.6,    0.3,  999.0,  999.0,  999.0,  999.0,  999.0,    0.1,  999.0,  999.0,   -0.1,  999.0,  999.0,    0.4,  999.0,  999.0,  999.0,  999.0,   -0.1,  999.0,  999.0,  999.0,  999.0,  999.0,  999.0,  999.0,  999.0,  999.0,  999.0,  999.0,  999.0,  999.0,  999.0,  999.0,  999.0,  999.0,  999.0,  999.0,  999.0,  999.0,  999.0,  999.0,  999.0,  999.0
2015/02/15 04:00,  999.0,    7.2,    8.7,   10.3,   12.0,   13.0,   14.0,   15.6,   15.9,   15.5,   16.1,   16.0,   16.6,   16.5,   17.7,   18.2,   18.6,   21.6,   20.8,   20.9,   20.4,   23.0,   27.3,  999.0,   28.7,  999.0,  999.0,  999.0,  999.0,   -0.1,    0.2,    0.2,   -0.1,    0.1,  999.0,  999.0,  999.0,  999.0,  999.0,  999.0,  999.0,   -0.1,  999.0,  999.0,  999.0,  999.0,  999.0,  999.0,  999.0,   -0.5,  999.0,  999.0,  999.0,  999.0,  999.0,  999.0,  999.0,  999.0,  999.0,  999.0,  999.0,  999.0,  999.0,  999.0,  999.0,  999.0,  999.0,  999.0,  999.0,  999.0,  999.0,  999.0,  999.0,  999.0,  999.0,  999.0,  999.0,  999.0,  999.0,  999.0
2015/02/15 04:10,  999.0,    7.9,    8.8,   10.2,   11.5,   12.2,   12.8,   13.7,   14.3,   15.3,   15.8,   15.7,   15.7,   16.3,   17.6,   18.4,   18.1,   19.7,   19.9,   21.4,   22.6,   23.4,   23.8,   27.0,   24.6,   26.7,  999.0,  999.0,  999.0,  999.0,  999.0,    0.6,  999.0,  999.0,  999.0,  999.0,  999.0,  999.0,  999.0,  999.0,  999.0,  999.0,  999.0,  999.0,  999.0,  999.0,  999.0,  999.0,  999.0,  999.0,  999.0,  999.0,  999.0,  999.0,  999.0,  999.0,  999.0,  999.0,  999.0,  999.0,  999.0,  999.0,  999.0,  999.0,  999.0,  999.0,  999.0,  999.0,  999.0,  999.0,  999.0,  999.0,  999.0,  999.0,  999.0,  999.0,  999.0,  999.0,  999.0,  999.0
2015/02/15 04:20,  999.0,    7.1,    8.5,   10.4,   12.2,   13.5,   14.7,   15.2,   16.5,   16.9,   16.9,   16.6,   16.6,   16.5,   16.7,   17.0,   18.4,   19.8,   21.5,   21.9,   22.4,   24.3,   24.3,   25.1,  999.0,  999.0,  999.0,  999.0,  999.0,  999.0,    0.3,   -0.0,    0.1,    0.1,    0.2,    0.8,  999.0,  999.0,  999.0,  999.0,   -0.2,    0.2,    0.3,    0.3,    0.7,    0.9,   -0.3,  999.0,   -0.5,  999.0,  999.0,    0.7,  999.0,  999.0,    0.1,  999.0,  999.0,  999.0,  999.0,  999.0,  999.0,  999.0,  999.0,  999.0,  999.0,  999.0,  999.0,  999.0,  999.0,  999.0,  999.0,  999.0,   -0.0,    0.3,  999.0,  999.0,  999.0,  999.0,  999.0,  999.0
2015/02/15 04:30,  999.0,    7.4,    8.0,   10.0,   11.9,   13.9,   15.4,   17.1,   17.6,   18.6,   19.7,   19.5,   19.6,   19.8,   19.6,   20.0,   20.2,   21.1,   22.2,   24.1,   22.8,   24.0,   25.4,  999.0,  999.0,  999.0,  999.0,  999.0,  999.0,  999.0,  999.0,    0.1,  999.0,  999.0,  999.0,  999.0,  999.0,    0.2,  999.0,  999.0,   -0.2,  999.0,   -0.1,  999.0,  999.0,  999.0,  999.0,  999.0,    0.1,  999.0,  999.0,  999.0,  999.0,  999.0,  999.0,  999.0,  999.0,  999.0,  999.0,  999.0,  999.0,  999.0,  999.0,  999.0,  999.0,  999.0,  999.0,  999.0,  999.0,  999.0,  999.0,  999.0,  999.0,  999.0,  999.0,  999.0,  999.0,  999.0,  999.0,  999.0
2015/02/15 04:40,  999.0,    6.8,    8.6,   10.6,   12.1,   13.6,   15.3,   16.3,   17.3,   18.5,   19.2,   19.9,   20.0,   20.2,   21.4,   22.3,   21.6,   23.0,   23.5,   23.6,   22.9,   20.8,   26.2,  999.0,  999.0,  999.0,  999.0,    0.6,   -0.1,   -0.4,    0.2,   -0.2,  999.0,  999.0,  999.0,  999.0,    0.2,  999.0,  999.0,  999.0,  999.0,  999.0,   -0.0,   -0.2,   -0.2,    0.3,    0.4,  999.0,  999.0,   -0.1,    0.1,  999.0,  999.0,    0.2,    0.3,    0.6,  999.0,  999.0,  999.0,  999.0,  999.0,  999.0,  999.0,    0.3,  999.0,  999.0,  999.0,   -0.2,   -0.2,  999.0,  999.0,  999.0,  999.0,    0.2,  999.0,  999.0,  999.0,  999.0,  999.0,  999.0
2015/02/15 04:50,  999.0,  999.0,   11.1,   12.4,   13.7,   14.9,   16.1,   17.3,   18.0,   18.3,   18.7,   19.6,   20.4,   20.4,   20.7,   21.6,   22.1,   23.6,   23.8,   24.0,   26.4,   25.4,   26.4,  999.0,  999.0,  999.0,  999.0,   -0.1,  999.0,    0.4,    0.3,    0.1,    0.1,  999.0,   -0.0,    0.5,   -0.4,    0.1,    0.0,  999.0,  999.0,  999.0,  999.0,   -0.2,    0.0,  999.0,   -0.2,    0.1,  999.0,  999.0,    0.1,   -0.4,  999.0,  999.0,    0.0,    0.3,   -0.4,  999.0,   -0.3,   -0.2,    0.1,   -0.2,    0.2,   -0.7,   -0.4,  999.0,    0.1,  999.0,    0.3,  999.0,   -0.6,  999.0,  999.0,  999.0,  999.0,  999.0,  999.0,  999.0,  999.0,  999.0
2015/02/15 05:00,  999.0,   10.4,   10.7,   12.5,   13.1,   14.5,   15.8,   17.2,   20.0,   20.8,   20.4,   22.0,   22.8,   23.2,   23.2,   23.2,   23.8,   22.3,  999.0,  999.0,  999.0,  999.0,    0.6,    0.1,    0.1,    0.1,    0.2,    0.3,    0.2,    0.2,   -0.2,   -0.1,   -0.1,   -0.1,   -0.1,  999.0,    0.2,  999.0,   -0.2,   -0.0,  999.0,   -0.0,    0.1,    0.1,   -0.2,   -0.2,   -0.1,   -0.0,    0.1,  999.0,   -0.2,   -0.3,    0.2,    0.0,   -0.0,   -0.0,   -0.0,    0.1,   -0.4,    0.0,   -0.4,    0.1,   -0.0,   -0.1,    0.3,   -0.0,  999.0,   -0.5,  999.0,  999.0,  999.0,  999.0,    0.3,  999.0,  999.0,  999.0,  999.0,  999.0,  999.0,  999.0
2015/02/15 05:10,  999.0,   11.0,   10.6,   12.2,   15.0,   15.6,   17.1,   19.0,   19.7,   20.8,   21.8,   22.7,   23.3,   24.5,   24.4,   22.9,   22.7,  999.0,  999.0,  999.0,  999.0,  999.0,    0.2,    0.1,    0.2,    0.2,    0.3,    0.1,    0.0,   -0.3,    0.1,   -0.0,    0.1,   -0.1,    0.2,   -0.2,   -0.2,    0.0,    0.1,    0.1,   -0.2,   -0.2,   -0.0,    0.2,   -0.2,    0.0,   -0.0,    0.1,    0.1,    0.2,    0.1,    0.0,    0.1,    0.4,    0.2,   -0.0,   -0.1,   -0.1,   -0.0,    0.0,   -0.2,   -0.1,   -0.0,    0.1,    0.1,    0.1,  999.0,    0.1,    0.0,   -0.1,   -0.2,  999.0,    0.1,  999.0,   -0.3,  999.0,  999.0,  999.0,  999.0,  999.0
2015/02/15 05:20,  999.0,  999.0,  999.0,   14.7,   15.7,   17.5,   17.4,   18.3,   19.8,   21.0,   22.1,   22.6,   23.7,   23.0,   20.9,  999.0,  999.0,  999.0,   17.1,  999.0,  999.0,  999.0,    0.2,    0.0,   -0.0,    0.2,    0.0,    0.1,    0.0,    0.2,    0.1,    0.0,    0.1,   -0.1,   -0.1,   -0.1,   -0.2,    0.0,   -0.1,   -0.1,   -0.5,   -0.2,    0.1,    0.0,    0.1,   -0.1,    0.2,    0.2,    0.1,    0.1,    0.0,    0.3,   -0.0,   -0.1,    0.1,    0.2,   -0.1,   -0.0,   -0.2,    0.1,    0.4,    0.2,    0.1,    0.1,    0.2,  999.0,    0.6,    0.2,  999.0,  999.0,    0.1,   -0.1,  999.0,  999.0,  999.0,  999.0,  999.0,  999.0,  999.0,  999.0
2015/02/15 05:30,  999.0,  999.0,   12.8,   15.0,   15.7,   17.6,   17.4,   18.3,   19.0,   20.8,   21.8,   21.2,   20.3,   18.3,   19.4,   19.4,  999.0,  999.0,  999.0,  999.0,  999.0,  999.0,    0.2,    0.2,    0.1,    0.0,   -0.1,   -0.1,   -0.1,    0.1,    0.0,   -0.1,   -0.0,    0.0,   -0.1,    0.4,    0.1,   -0.1,   -0.0,    0.1,   -0.1,   -0.0,    0.0,    0.0,   -0.0,   -0.0,    0.1,   -0.2,   -0.0,    0.1,    0.2,    0.1,    0.1,    0.3,   -0.0,    0.3,   -0.3,   -0.3,   -0.1,    0.3,    0.1,    0.1,    0.3,    0.1,   -0.0,   -0.0,    0.2,   -0.0,    0.3,    0.1,  999.0,  999.0,    0.0,    0.1,   -0.0,  999.0,  999.0,  999.0,  999.0,  999.0
2015/02/15 05:40,  999.0,  999.0,   13.3,   15.8,   17.5,   18.8,   20.5,   20.5,   21.8,   21.5,   21.7,   20.9,   20.2,   20.3,   20.9,   20.6,  999.0,  999.0,  999.0,  999.0,  999.0,    0.2,    0.1,    0.1,    0.1,   -0.1,   -0.1,   -0.2,   -0.0,    0.1,    0.3,   -0.1,    0.2,    0.1,    0.0,   -0.1,   -0.0,    0.2,    0.1,   -0.0,   -0.2,   -0.3,   -0.1,   -0.2,   -0.0,    0.1,    0.0,   -0.1,   -0.3,   -0.1,    0.1,    0.2,   -0.1,    0.0,   -0.1,    0.0,    0.2,   -0.1,   -0.1,    0.0,   -0.0,   -0.1,    0.0,   -0.1,    0.1,   -0.1,    0.1,    0.0,   -0.1,   -0.1,  999.0,   -0.2,   -0.0,    0.2,    0.1,  999.0,  999.0,  999.0,  999.0,  999.0
2015/02/15 05:50,  999.0,  999.0,   16.0,   16.4,   17.0,   17.1,   17.4,  999.0,  999.0,   21.7,   23.2,  999.0,   20.5,   20.3,   21.2,  999.0,  999.0,  999.0,  999.0,    0.0,    0.2,    0.3,   -0.1,    0.1,   -0.1,   -0.1,    0.0,   -0.1,   -0.1,   -0.1,   -0.0,    0.0,   -0.3,   -0.0,   -0.1,   -0.1,    0.1,    0.0,   -0.0,   -0.1,   -0.2,   -0.1,   -0.1,   -0.0,   -0.1,   -0.2,    0.0,    0.0,    0.0,    0.0,   -0.2,    0.1,   -0.2,   -0.1,   -0.1,    0.0,   -0.1,    0.1,    0.2,    0.1,    0.2,    0.0,    0.3,    0.0,   -0.1,   -0.1,   -0.1,    0.4,    0.4,   -0.1,  999.0,  999.0,    0.0,    0.1,  999.0,  999.0,  999.0,  999.0,  999.0,  999.0
2015/02/15 06:00,  999.0,  999.0,  999.0,  999.0,  999.0,  999.0,  999.0,   23.1,   24.1,   24.0,   24.5,  999.0,   21.7,   21.2,   20.1,   20.5,  999.0,  999.0,  999.0,  999.0,  999.0,  999.0,    0.1,   -0.0,    0.3,    0.0,   -0.0,    0.0,   -0.2,    0.0,    0.0,    0.2,    0.1,   -0.0,    0.1,    0.2,   -0.0,   -0.0,   -0.1,    0.1,   -0.3,    0.1,   -0.1,    0.0,    0.1,   -0.0,    0.0,    0.1,    0.1,    0.1,    0.1,   -0.0,    0.2,    0.2,    0.1,    0.1,    0.1,   -0.1,   -0.0,    0.2,    0.3,    0.0,   -0.1,    0.0,  999.0,  999.0,  999.0,  999.0,  999.0,  999.0,    0.1,  999.0,    0.1,  999.0,    0.1,  999.0,  999.0,  999.0,  999.0,  999.0
2015/02/15 06:10,  999.0,  999.0,  999.0,   17.3,  999.0,  999.0,   22.2,   21.3,   23.6,   24.7,   26.1,   24.8,   26.5,   25.0,  999.0,   22.6,   22.0,  999.0,  999.0,  999.0,  999.0,  999.0,    0.1,   -0.1,   -0.1,    0.1,    0.0,    0.2,    0.4,  999.0,    0.3,   -0.2,   -0.0,    0.3,    0.0,    0.2,    0.1,   -0.1,  999.0,    0.0,   -0.3,   -0.0,   -0.2,    0.1,    0.1,    0.2,   -0.0,    0.1,   -0.4,   -0.1,    0.0,   -0.2,   -0.2,    0.0,   -0.1,    0.2,   -0.2,    0.1,   -0.4,   -0.2,  999.0,   -0.2,    0.0,   -0.2,   -0.1,    0.1,  999.0,  999.0,  999.0,  999.0,    0.3,  999.0,  999.0,  999.0,  999.0,  999.0,  999.0,  999.0,  999.0,  999.0
2015/02/15 06:20,  999.0,  999.0,   15.4,   16.4,   18.3,   17.3,   18.1,  999.0,  999.0,  999.0,  999.0,  999.0,  999.0,  999.0,  999.0,   21.1,   20.5,   20.5,  999.0,  999.0,  999.0,    0.3,    0.2,    0.0,   -0.0,   -0.0,    0.2,   -0.1,   -0.0,   -0.1,    0.0,   -0.1,    0.1,    0.1,    0.1,   -0.1,    0.2,    0.0,   -0.1,    0.1,   -0.4,   -0.4,    0.0,    0.0,    0.2,    0.2,   -0.0,   -0.0,    0.1,   -0.1,   -0.1,    0.1,    0.0,   -0.2,   -0.0,   -0.1,    0.0,    0.0,    0.1,   -0.1,   -0.3,   -0.0,   -0.3,   -0.3,   -0.1,   -0.1,   -0.5,    0.1,  999.0,   -0.2,   -0.0,   -0.1,   -0.2,    0.1,   -0.2,  999.0,  999.0,  999.0,  999.0,  999.0
2015/02/15 06:30,  999.0,  999.0,   14.1,   15.2,   17.1,   18.2,   18.1,   17.9,   19.6,   19.7,   18.9,   20.1,   18.5,   18.4,   16.9,  999.0,  999.0,  999.0,  999.0,  999.0,  999.0,    0.2,    0.0,   -0.1,    0.0,   -0.0,   -0.0,    0.1,    0.1,    0.2,    0.1,   -0.1,   -0.1,   -0.0,   -0.0,    0.0,   -0.1,    0.1,    0.0,   -0.1,   -0.1,    0.1,   -0.0,    0.2,   -0.0,   -0.0,    0.1,    0.0,    0.1,    0.0,    0.0,   -0.0,   -0.0,    0.1,   -0.1,   -0.0,    0.0,    0.0,    0.2,    0.0,   -0.2,   -0.2,   -0.1,    0.3,   -0.3,   -0.1,  999.0,    0.0,   -0.0,    0.3,   -0.0,  999.0,    0.3,   -0.2,    0.0,  999.0,  999.0,  999.0,  999.0,  999.0
2015/02/15 06:40,  999.0,  999.0,   13.4,   16.6,   18.0,   19.3,  999.0,  999.0,   19.2,  999.0,   19.6,   19.2,   18.7,   19.2,   18.3,   19.5,  999.0,  999.0,  999.0,  999.0,  999.0,  999.0,  999.0,    0.3,    0.1,   -0.3,   -0.5,   -0.0,   -0.1,    0.0,   -0.0,    0.0,    0.1,    0.0,   -0.2,    0.2,    0.1,   -0.1,   -0.1,   -0.1,   -0.2,   -0.1,    0.1,    0.1,    0.2,    0.4,    0.0,   -0.2,    0.1,    0.2,   -0.1,   -0.6,   -0.2,   -0.2,   -0.1,    0.0,   -0.1,    0.3,    0.2,    0.3,   -0.1,    0.0,    0.1,    0.0,    0.1,    0.5,  999.0,    0.5,    0.1,    0.1,    0.1,  999.0,  999.0,    0.2,   -0.2,  999.0,  999.0,  999.0,  999.0,  999.0
2015/02/15 06:50,  999.0,  999.0,   15.0,   16.0,   18.1,   19.3,   18.2,   18.5,   20.1,   20.5,   21.5,   21.0,   19.8,   19.8,   19.5,   18.5,  999.0,  999.0,  999.0,  999.0,  999.0,    0.2,    0.1,   -0.0,   -0.0,   -0.1,   -0.1,   -0.0,   -0.1,    0.1,   -0.2,    0.2,   -0.0,    0.1,    0.1,   -0.1,    0.0,    0.2,   -0.1,   -0.1,   -0.2,    0.1,    0.0,   -0.0,    0.2,   -0.1,   -0.1,    0.1,    0.1,   -0.0,   -0.1,    0.0,   -0.1,   -0.2,    0.1,   -0.2,    0.1,   -0.1,   -0.2,    0.0,    0.0,   -0.1,    0.1,   -0.2,   -0.1,    0.0,  999.0,    0.0,    0.1,  999.0,   -0.3,   -0.3,  999.0,    0.2,   -0.1,  999.0,  999.0,  999.0,  999.0,  999.0
2015/02/15 07:00,  999.0,  999.0,   13.1,   15.8,   16.7,   18.0,   17.5,   16.9,   17.4,   19.9,   21.2,   19.8,   19.4,   19.3,   19.2,  999.0,  999.0,  999.0,  999.0,  999.0,  999.0,    0.0,   -0.1,    0.0,   -0.1,   -0.1,    0.0,    0.1,    0.2,    0.0,   -0.0,    0.0,    0.1,    0.1,   -0.1,   -0.3,   -0.0,   -0.1,    0.0,    0.1,   -0.2,    0.0,    0.1,   -0.1,   -0.2,    0.1,    0.1,   -0.0,   -0.1,    0.0,   -0.0,   -0.1,    0.2,    0.1,   -0.2,   -0.0,   -0.1,    0.1,   -0.0,    0.1,    0.1,    0.1,    0.1,    0.1,    0.2,    0.2,   -0.1,   -0.1,   -0.0,   -0.2,  999.0,   -0.3,   -0.3,  999.0,    0.0,  999.0,  999.0,  999.0,  999.0,  999.0
2015/02/15 07:10,  999.0,  999.0,   15.1,   14.4,   15.2,   16.9,   19.2,   19.5,   19.6,   20.3,   18.5,   17.8,   17.8,  999.0,   17.2,  999.0,  999.0,  999.0,  999.0,  999.0,  999.0,    0.0,    0.1,    0.0,    0.0,   -0.1,   -0.0,    0.2,   -0.2,   -0.0,    0.0,   -0.2,   -0.1,   -0.0,   -0.0,    0.1,    0.1,   -0.1,   -0.1,    0.1,   -0.2,   -0.2,   -0.1,   -0.0,   -0.0,    0.1,   -0.1,    0.3,    0.1,    0.1,    0.2,    0.1,   -0.3,    0.0,   -0.0,    0.1,   -0.0,    0.1,    0.1,    0.1,    0.1,   -0.2,   -0.0,    0.2,    0.1,    0.2,    0.1,    0.1,    0.2,   -0.0,   -0.1,    0.1,   -0.0,  999.0,  999.0,  999.0,  999.0,  999.0,  999.0,  999.0
2015/02/15 07:20,  999.0,  999.0,   13.8,   16.2,   16.5,   19.8,   19.9,   21.4,   21.5,   23.6,  999.0,  999.0,  999.0,  999.0,  999.0,  999.0,  999.0,  999.0,  999.0,  999.0,   -0.1,    0.1,    0.2,    0.2,    0.1,    0.1,   -0.1,    0.2,    0.2,    0.2,    0.2,    0.4,    0.2,    0.1,  999.0,    0.0,   -0.2,   -0.2,    0.1,   -0.1,   -0.1,   -0.4,    0.0,    0.0,    0.0,    0.2,    0.2,   -0.0,   -0.0,   -0.0,   -0.1,    0.0,   -0.3,   -0.1,    0.1,    0.1,    0.0,   -0.0,   -0.5,   -0.1,   -0.5,  999.0,    0.3,   -0.0,    0.5,  999.0,  999.0,  999.0,  999.0,  999.0,    0.0,  999.0,  999.0,  999.0,  999.0,  999.0,  999.0,  999.0,  999.0,  999.0
2015/02/15 07:30,  999.0,  999.0,   15.7,   15.7,   16.7,   19.3,   17.9,   19.3,   19.7,   21.8,   22.6,   22.6,   20.5,   19.5,  999.0,    7.2,  999.0,  999.0,  999.0,  999.0,  999.0,    0.1,    0.1,    0.1,   -0.0,    0.1,    0.1,    0.2,    0.1,    0.3,   -0.1,   -0.1,   -0.1,   -0.2,    0.0,    0.2,    0.1,    0.2,    0.1,    0.1,   -0.1,    0.0,   -0.1,    0.0,    0.1,    0.1,   -0.1,   -0.0,    0.1,    0.0,    0.2,    0.0,    0.0,    0.0,    0.0,   -0.0,   -0.0,   -0.1,    0.1,   -0.1,   -0.0,   -0.0,   -0.1,   -0.1,    0.1,    0.2,    0.0,   -0.3,   -0.1,  999.0,  999.0,  999.0,    0.1,  999.0,  999.0,  999.0,  999.0,  999.0,  999.0,  999.0
2015/02/15 07:40,  999.0,  999.0,   14.6,   15.1,   15.7,   17.1,   17.8,   18.1,   19.4,   19.3,   19.3,   18.9,  999.0,   16.3,  999.0,  999.0,  999.0,  999.0,    0.2,   -0.0,    0.0,    0.1,    0.2,    0.1,   -0.0,    0.2,   -0.0,    0.3,    0.3,    0.0,   -0.1,   -0.0,    0.0,   -0.0,   -0.0,    0.1,    0.1,    0.0,   -0.1,    0.0,   -0.2,   -0.4,   -0.2,   -0.1,   -0.1,   -0.1,   -0.0,   -0.0,   -0.0,    0.1,   -0.1,    0.1,    0.2,    0.2,    0.2,    0.1,    0.1,   -0.0,    0.1,   -0.1,   -0.2,   -0.1,   -0.0,   -0.1,   -0.0,   -0.1,   -0.0,    0.0,   -0.1,   -0.1,    0.3,    0.0,   -0.1,   -0.3,   -0.0,  999.0,  999.0,  999.0,  999.0,  999.0
2015/02/15 07:50,  999.0,  999.0,    6.5,    9.9,   10.6,   11.2,   11.3,    8.3,    5.9,    9.1,    8.6,    0.4,  999.0,  999.0,  999.0,  999.0,  999.0,  999.0,    0.1,    0.0,    0.2,    0.2,    0.2,   -0.0,    0.1,   -0.0,    0.2,    0.7,    0.2,    0.0,   -0.2,  999.0,    0.2,    0.1,    0.1,   -0.1,    0.0,    0.1,    0.0,   -0.0,   -0.2,   -0.1,   -0.1,    0.0,   -0.1,   -0.1,    0.0,    0.1,    0.0,    0.0,   -0.1,    0.2,   -0.1,   -0.2,   -0.0,    0.0,   -0.1,   -0.1,   -0.0,   -0.0,   -0.1,   -0.1,    0.0,   -0.0,   -0.1,    0.1,   -0.0,    0.1,    0.2,    0.2,   -0.1,   -0.0,   -0.4,  999.0,   -0.0,  999.0,  999.0,  999.0,  999.0,  999.0
2015/02/15 08:00,  999.0,  999.0,   -0.1,    2.6,    3.4,    0.2,    0.1,    0.2,    0.2,    3.0,    0.0,    0.0,    0.1,    0.1,    0.1,    0.1,  999.0,    0.2,    0.1,    0.2,  999.0,   -0.1,    0.1,    0.1,   -0.2,    0.1,    0.0,   -0.1,   -0.0,   -0.1,    0.1,   -0.1,   -0.0,   -0.2,    0.0,   -0.1,   -0.1,   -0.1,   -0.0,   -0.1,   -0.0,    0.1,    0.1,    0.0,   -0.1,   -0.1,   -0.0,   -0.1,    0.0,   -0.0,   -0.1,   -0.0,    0.1,   -0.0,   -0.0,   -0.1,   -0.1,    0.2,   -0.0,    0.2,    0.1,   -0.0,    0.0,    0.2,    0.0,   -0.0,   -0.1,   -0.0,   -0.2,    0.1,   -0.2,   -0.1,    0.0,  999.0,   -0.0,  999.0,  999.0,  999.0,  999.0,  999.0
2015/02/15 08:10,  999.0,  999.0,   -0.6,   11.9,  999.0,    7.9,   12.0,    8.1,   10.8,    5.7,   13.8,    6.8,    0.1,    0.0,    0.0,  999.0,  999.0,  999.0,  999.0,    0.2,    0.1,    0.2,    0.1,    0.1,    0.2,    0.2,    0.1,    0.3,  999.0,   -0.0,   -0.0,   -0.1,   -0.1,    0.0,    0.0,    0.0,    0.0,    0.0,   -0.0,    0.1,   -0.1,   -0.1,    0.0,    0.0,    0.0,   -0.1,   -0.1,    0.0,   -0.2,   -0.1,   -0.0,    0.0,   -0.1,   -0.0,    0.0,    0.1,   -0.1,    0.1,   -0.0,    0.0,   -0.1,    0.0,   -0.0,    0.1,    0.1,    0.1,   -0.1,   -0.1,   -0.0,   -0.0,    0.3,   -0.1,    0.3,    0.5,   -0.1,  999.0,  999.0,  999.0,  999.0,  999.0
2015/02/15 08:20,  999.0,  999.0,  999.0,   11.3,   11.9,   13.4,   14.8,   14.9,   14.9,   15.5,   11.6,   10.2,   12.4,    0.2,  999.0,  999.0,    2.9,    0.1,    0.0,    0.4,   -0.1,    0.1,    0.1,   -0.1,   -0.1,   -0.1,    0.3,   -0.1,   -0.2,   -0.0,    0.1,    0.0,   -0.1,    0.1,    0.2,   -0.0,   -0.1,    0.1,   -0.0,   -0.2,   -0.3,    0.1,    0.2,   -0.0,   -0.1,    0.0,   -0.1,   -0.0,    0.2,    0.0,   -0.0,    0.0,   -0.0,    0.2,    0.1,   -0.2,    0.0,    0.0,    0.1,    0.2,   -0.0,   -0.2,   -0.0,    0.1,    0.1,    0.1,    0.2,    0.1,    0.3,  999.0,    0.1,   -0.7,  999.0,  999.0,    0.1,  999.0,  999.0,  999.0,  999.0,  999.0
2015/02/15 08:30,  999.0,  999.0,   11.4,   10.1,   13.6,   15.1,   13.8,   14.4,   14.6,   12.0,   16.7,   12.9,   12.8,   16.6,   16.6,    7.3,    7.2,  999.0,  999.0,  999.0,  999.0,    0.3,    0.3,    0.5,    0.2,    0.2,    0.3,    0.0,    0.0,   -0.0,   -0.2,   -0.0,    0.2,   -0.1,   -0.1,    0.4,   -0.1,   -0.1,    0.2,    0.3,   -0.0,   -0.0,    0.0,    0.2,   -0.3,   -0.1,   -0.0,   -0.3,    0.2,    0.1,    0.1,   -0.2,   -0.1,    0.0,   -0.1,    0.2,   -0.1,   -0.2,   -0.2,   -0.1,    0.3,    0.0,    0.2,   -0.1,    0.0,  999.0,    0.2,  999.0,    0.0,    0.0,    0.2,   -0.0,  999.0,  999.0,  999.0,  999.0,  999.0,  999.0,  999.0,  999.0
2015/02/15 08:40,  999.0,  999.0,   11.6,   13.6,   14.7,   14.8,  999.0,   15.1,   15.9,   15.9,   16.0,   16.2,   15.7,   15.4,   15.3,   14.8,   14.3,  999.0,  999.0,  999.0,  999.0,    0.5,    0.7,    0.7,    0.5,    0.3,   -0.1,   -0.1,    0.1,    0.1,    0.1,   -0.2,   -0.1,    0.0,    0.2,    0.0,   -0.1,   -0.0,    0.2,    0.1,    0.0,   -0.2,    0.0,    0.1,    0.2,    0.0,   -0.0,   -0.1,    0.2,    0.1,    0.0,    0.0,   -0.1,   -0.0,    0.0,    0.1,   -0.1,    0.1,    0.1,   -0.1,    0.0,   -0.0,   -0.2,   -0.1,    0.0,   -0.3,    0.0,   -0.1,    0.0,    0.0,    0.2,   -0.0,   -0.2,  999.0,   -0.0,  999.0,  999.0,  999.0,  999.0,  999.0
2015/02/15 08:50,  999.0,  999.0,  999.0,  999.0,  999.0,   14.2,   15.7,   14.0,   15.4,  999.0,  999.0,   16.8,   16.5,   15.1,   15.5,  999.0,   14.6,   17.4,  999.0,  999.0,  999.0,    0.2,    0.8,    0.4,    0.5,   -0.1,   -0.2,    0.1,   -0.1,   -0.1,   -0.1,    0.1,    0.1,    0.0,    0.0,   -0.0,   -0.1,   -0.1,   -0.2,   -0.1,   -0.0,   -0.0,    0.1,    0.0,    0.1,    0.2,    0.0,   -0.1,    0.0,   -0.2,    0.0,    0.2,   -0.0,   -0.1,   -0.0,    0.2,   -0.0,    0.0,    0.2,    0.0,   -0.1,    0.1,    0.0,    0.0,    0.1,    0.1,    0.1,   -0.2,   -0.0,   -0.1,   -0.1,  999.0,  999.0,   -0.1,    0.1,  999.0,  999.0,  999.0,  999.0,  999.0
2015/02/15 09:00,  999.0,    0.1,   -0.1,   -0.0,  999.0,   -0.2,   -0.1,    0.2,   -0.1,    0.0,  999.0,  999.0,  999.0,    0.4,    0.4,    0.4,  999.0,  999.0,    0.1,    0.2,   -0.0,    0.1,    0.1,    0.0,    0.1,    0.0,    0.1,   -0.0,   -0.0,   -0.0,   -0.0,   -0.0,   -0.1,   -0.0,    0.0,   -0.0,    0.0,    0.1,    0.1,    0.1,   -0.0,   -0.1,    0.0,    0.1,    0.0,   -0.1,    0.0,    0.0,   -0.0,   -0.0,    0.1,    0.2,    0.0,    0.0,    0.1,   -0.0,   -0.1,   -0.1,   -0.0,    0.0,    0.0,    0.1,   -0.0,    0.0,   -0.0,   -0.0,    0.0,   -0.1,    0.1,  999.0,   -0.0,   -0.1,  999.0,   -0.2,    0.1,  999.0,  999.0,  999.0,  999.0,  999.0
2015/02/15 09:10,  999.0,  999.0,    0.0,    0.1,    0.0,    0.0,   -0.0,   -0.0,    0.2,    0.3,  999.0,    0.1,    0.1,    0.2,    0.1,    0.0,    0.1,   -0.1,   -0.0,    0.1,    0.0,    0.2,    0.3,    0.1,    0.1,    0.1,   -0.2,   -0.1,   -0.1,   -0.0,    0.0,   -0.0,   -0.1,   -0.0,   -0.0,    0.0,   -0.0,    0.1,   -0.0,   -0.0,    0.0,    0.0,    0.1,    0.1,    0.1,    0.1,   -0.0,    0.0,    0.0,    0.1,   -0.1,   -0.0,   -0.0,   -0.0,    0.1,    0.1,    0.0,    0.1,   -0.0,    0.0,    0.0,    0.0,   -0.0,    0.1,   -0.0,   -0.0,    0.0,   -0.0,   -0.0,    0.0,    0.2,   -0.0,   -0.2,   -0.0,   -0.1,  999.0,  999.0,  999.0,  999.0,  999.0
2015/02/15 09:20,  999.0,  999.0,    0.0,   -0.0,   -0.0,   -0.0,   -0.1,   -0.0,   -0.1,   -0.0,   -0.1,   -0.1,   -0.0,    0.0,    0.0,    0.0,    0.0,    0.0,    0.0,    0.1,    0.0,   -0.1,    0.0,   -0.1,   -0.1,   -0.1,    0.0,    0.0,   -0.0,   -0.0,   -0.1,   -0.1,   -0.1,   -0.0,    0.2,    0.1,    0.0,   -0.1,   -0.1,   -0.0,    0.0,    0.1,   -0.0,    0.0,   -0.0,    0.0,    0.0,   -0.0,    0.1,   -0.0,    0.1,    0.1,    0.0,    0.0,   -0.0,    0.1,    0.1,   -0.1,    0.0,   -0.0,   -0.0,   -0.0,   -0.1,   -0.0,   -0.1,    0.0,    0.0,    0.1,    0.1,    0.1,   -0.0,    0.0,    0.0,   -0.0,   -0.1,    0.1,  999.0,  999.0,  999.0,  999.0
2015/02/15 09:30,  999.0,  999.0,   -0.0,    0.0,    0.0,    0.1,    0.1,    0.1,    0.0,    0.0,    0.1,    0.0,   -0.1,    0.0,    0.0,    0.1,   -0.0,   -0.0,   -0.1,   -0.0,   -0.0,    0.0,    0.1,    0.0,    0.0,    0.0,    0.1,    0.1,   -0.0,   -0.1,   -0.1,    0.0,    0.0,    0.1,    0.1,   -0.0,   -0.0,    0.0,   -0.1,   -0.1,    0.1,    0.1,   -0.0,    0.1,    0.1,   -0.1,   -0.0,    0.0,   -0.0,    0.0,   -0.0,   -0.0,    0.0,   -0.0,   -0.0,    0.0,   -0.0,    0.0,    0.2,    0.1,    0.0,   -0.1,    0.0,   -0.0,   -0.0,    0.0,    0.0,    0.0,    0.1,   -0.0,    0.0,    0.1,   -0.1,   -0.0,   -0.2,    0.2,  999.0,  999.0,  999.0,  999.0
2015/02/15 09:40,  999.0,  999.0,   -0.2,   -0.1,    0.0,   -0.0,    0.0,   -0.0,    0.0,   -0.1,   -0.1,   -0.1,    0.1,    0.1,    0.1,    0.1,    0.2,    0.0,   -0.0,   -0.0,    0.0,    0.0,    0.0,   -0.0,   -0.0,    0.0,    0.0,   -0.0,    0.0,   -0.0,    0.0,   -0.0,   -0.0,    0.0,   -0.0,    0.1,    0.0,   -0.0,   -0.1,    0.0,   -0.0,    0.0,    0.1,   -0.1,    0.1,   -0.0,   -0.1,   -0.0,   -0.1,   -0.0,   -0.1,   -0.0,    0.0,    0.0,    0.1,    0.1,    0.0,    0.1,   -0.1,   -0.1,    0.0,   -0.0,   -0.0,    0.1,    0.0,   -0.1,    0.1,   -0.2,   -0.1,    0.0,   -0.0,   -0.2,   -0.0,   -0.1,   -0.3,  999.0,  999.0,  999.0,  999.0,  999.0
2015/02/15 09:50,  999.0,  999.0,   -0.2,   -0.0,   -0.0,    0.0,    0.0,   -0.1,    0.0,   -0.1,    0.0,    0.0,    0.0,   -0.0,   -0.0,   -0.1,   -0.0,    0.1,   -0.0,   -0.1,    0.1,    0.0,    0.0,   -0.0,   -0.0,   -0.1,    0.0,    0.1,    0.0,   -0.1,   -0.1,   -0.1,    0.1,    0.1,    0.0,    0.0,    0.1,   -0.0,   -0.0,    0.0,   -0.0,    0.0,    0.0,   -0.0,    0.1,    0.0,    0.1,   -0.1,    0.0,    0.1,    0.0,    0.1,   -0.1,    0.2,   -0.0,    0.0,   -0.1,    0.0,    0.0,    0.2,   -0.1,    0.0,   -0.1,   -0.1,    0.0,   -0.3,    0.0,   -0.1,    0.0,    0.1,    0.0,   -0.1,   -0.1,    0.0,   -0.0,  999.0,  999.0,  999.0,  999.0,  999.0
2015/02/15 10:00,  999.0,  999.0,   -0.2,   -0.0,    0.0,    0.0,    0.0,    0.0,   -0.1,   -0.0,    0.0,    0.0,   -0.0,   -0.0,   -0.0,   -0.0,   -0.1,   -0.0,    0.0,    0.1,    0.0,    0.1,   -0.0,   -0.1,   -0.0,    0.0,   -0.0,   -0.1,    0.0,    0.0,    0.1,    0.0,   -0.1,   -0.1,    0.0,   -0.1,   -0.1,   -0.0,   -0.0,   -0.0,    0.0,    0.0,    0.1,   -0.0,   -0.0,    0.0,   -0.1,    0.1,   -0.0,    0.0,   -0.1,    0.1,   -0.0,   -0.0,   -0.0,    0.1,   -0.1,   -0.0,    0.1,    0.1,   -0.0,   -0.1,    0.0,   -0.1,   -0.0,    0.1,   -0.1,   -0.1,   -0.1,    0.0,   -0.1,    0.4,    0.0,    0.3,   -0.1,  999.0,  999.0,  999.0,  999.0,  999.0
2015/02/15 10:10,  999.0,  999.0,    5.3,    7.7,    5.9,    8.2,    4.7,    5.0,    8.2,    6.5,    6.2,    7.4,    4.6,    5.3,  999.0,   -0.1,  999.0,   -0.1,    0.1,    0.1,   -0.0,    0.1,    0.1,   -0.1,    0.0,    0.0,   -0.0,    0.1,    0.0,   -0.1,   -0.0,   -0.1,   -0.2,   -0.1,   -0.1,   -0.0,   -0.1,   -0.1,   -0.0,   -0.0,    0.0,    0.0,   -0.0,   -0.1,   -0.1,    0.1,    0.1,    0.1,   -0.0,   -0.0,    0.0,    0.0,   -0.1,   -0.1,   -0.1,    0.0,  999.0,    0.1,    0.0,    0.1,   -0.1,   -0.1,    0.1,    0.1,    0.2,    0.1,   -0.0,    0.1,    0.1,   -0.1,   -0.0,   -0.0,   -0.1,    0.3,    0.2,    0.4,  999.0,  999.0,  999.0,  999.0
2015/02/15 10:20,  999.0,  999.0,   -0.1,   -0.1,    0.0,    0.0,   -0.1,    0.0,    0.1,   -0.0,  999.0,    0.1,    0.0,    0.1,  999.0,   -0.1,    0.0,    0.0,    0.0,   -0.1,    0.1,    0.1,    0.1,    0.1,    0.1,   -0.0,   -0.0,    0.0,    0.2,    0.0,   -0.0,   -0.0,    0.1,   -0.0,    0.1,    0.0,    0.0,    0.0,   -0.0,   -0.1,   -0.0,    0.0,   -0.0,   -0.0,   -0.1,   -0.2,    0.0,    0.0,    0.1,   -0.0,   -0.1,   -0.0,    0.0,    0.0,   -0.0,   -0.0,    0.0,    0.1,    0.1,    0.1,   -0.1,    0.1,   -0.1,    0.1,   -0.0,    0.1,    0.1,    0.0,   -0.1,   -0.0,   -0.0,    0.2,    0.0,    0.2,   -0.1,   -0.0,  999.0,  999.0,  999.0,  999.0
2015/02/15 10:30,  999.0,  999.0,    0.0,    0.0,   -0.1,    0.0,   -0.2,    0.0,   -0.0,   -0.0,   -0.0,    0.1,    8.8,    0.0,    0.1,    0.2,  999.0,    0.0,   -0.0,    0.0,   -0.1,   -0.1,    0.0,    0.1,    0.0,   -0.0,   -0.0,    0.1,    0.1,   -0.1,   -0.0,   -0.0,    0.1,    0.1,    0.1,    0.1,   -0.1,    0.1,   -0.1,   -0.0,   -0.0,   -0.1,   -0.1,   -0.0,   -0.1,    0.1,    0.0,    0.0,   -0.1,    0.1,   -0.1,   -0.1,   -0.0,    0.0,    0.1,    0.1,    0.1,   -0.1,    0.1,    0.1,    0.2,   -0.0,   -0.1,   -0.0,    0.0,    0.1,    0.1,    0.0,   -0.0,    0.0,    0.0,   -0.2,    0.1,    0.1,   -0.0,  999.0,  999.0,  999.0,  999.0,  999.0
2015/02/15 10:40,  999.0,  999.0,    0.0,    0.0,   -0.1,   -0.1,   -0.0,   -0.0,   -0.0,    0.2,    0.1,   -0.0,    0.1,   -0.0,    0.1,   -0.0,    0.0,    0.0,   -0.1,   -0.0,    0.0,    0.1,   -0.1,    0.1,   -0.0,    0.0,   -0.0,    0.0,   -0.1,   -0.0,   -0.0,    0.0,    0.1,   -0.1,    0.0,   -0.1,    0.0,   -0.0,    0.0,   -0.1,   -0.2,    0.1,    0.0,   -0.1,    0.1,   -0.0,   -0.1,    0.1,    0.1,    0.0,   -0.0,   -0.0,    0.0,   -0.1,   -0.2,   -0.1,    0.1,   -0.0,   -0.0,   -0.2,    0.2,    0.0,   -0.0,   -0.1,    0.1,    0.1,    0.2,   -0.1,    0.1,    0.1,    0.3,  999.0,    0.1,    0.2,    0.0,  999.0,  999.0,  999.0,  999.0,  999.0
2015/02/15 10:50,  999.0,  999.0,   -0.1,   -0.0,    0.2,    0.0,   -0.0,    0.0,  999.0,    0.1,    0.3,    0.2,    0.1,    0.1,    0.0,    0.0,   -0.1,    0.1,    0.1,    0.0,   -0.0,    0.0,   -0.1,    0.1,    0.1,    0.0,   -0.1,   -0.1,    0.1,   -0.0,   -0.0,   -0.1,   -0.0,    0.0,   -0.0,   -0.1,    0.0,    0.0,   -0.1,   -0.1,   -0.1,   -0.0,   -0.0,   -0.1,    0.1,    0.1,  999.0,   -0.1,    0.0,   -0.0,   -0.1,   -0.1,   -0.0,   -0.1,   -0.0,    0.0,    0.1,   -0.1,   -0.0,   -0.1,    0.1,   -0.1,   -0.1,   -0.0,    0.0,    0.2,   -0.0,    0.0,    0.1,    0.0,    0.1,   -0.1,   -0.1,   -0.2,  999.0,  999.0,  999.0,  999.0,  999.0,  999.0
2015/02/15 11:00,  999.0,  999.0,   -0.1,    0.0,    0.0,   -0.0,   -0.0,    0.0,    0.0,   -0.0,   -0.0,    0.0,    0.0,    0.1,    0.0,   -0.1,   -0.0,   -0.0,   -0.0,   -0.0,   -0.0,    0.0,    0.0,   -0.0,   -0.0,   -0.0,   -0.0,    0.1,   -0.0,   -0.0,    0.1,   -0.0,   -0.0,   -0.0,   -0.0,    0.1,    0.0,    0.0,   -0.0,    0.0,   -0.1,   -0.1,   -0.1,   -0.0,   -0.0,   -0.0,   -0.1,   -0.1,   -0.1,   -0.0,    0.0,    0.0,   -0.1,   -0.1,   -0.1,   -0.0,   -0.0,   -0.0,   -0.0,   -0.1,   -0.0,   -0.1,    0.1,    0.1,  999.0,    0.0,   -0.1,   -0.1,    0.0,    0.0,    0.1,   -0.0,   -0.1,   -0.0,   -0.1,    0.2,  999.0,  999.0,  999.0,  999.0
2015/02/15 11:10,  999.0,  999.0,   -0.0,   -0.0,    0.0,   -0.0,   -0.0,   -0.0,   -0.1,    0.0,   -0.0,   -0.1,    0.0,    0.1,    0.0,    0.1,    0.1,    0.0,   -0.0,   -0.1,   -0.1,   -0.1,    0.0,    0.0,   -0.0,    0.0,  999.0,   -0.0,    0.1,    0.0,    0.1,    0.0,   -0.1,    0.0,    0.0,   -0.1,   -0.1,   -0.0,   -0.1,   -0.0,   -0.1,   -0.1,    0.0,    0.1,    0.0,    0.0,   -0.0,   -0.0,   -0.1,   -0.0,    0.0,   -0.0,    0.0,   -0.0,   -0.0,    0.1,   -0.0,    0.0,   -0.1,   -0.0,    0.2,    0.1,    0.0,   -0.0,   -0.0,    0.1,    0.0,   -0.1,   -0.0,    0.1,    0.0,   -0.0,    0.1,   -0.0,    0.0,    0.2,  999.0,  999.0,  999.0,  999.0
2015/02/15 11:20,  999.0,  999.0,   -0.1,    0.0,    0.0,   -0.0,   -0.0,   -0.0,    0.0,   -0.1,    0.0,   -0.1,   -0.0,    0.0,   -0.0,    0.0,    0.1,    0.0,    0.0,    0.1,   -0.0,    0.0,   -0.0,   -0.1,    0.0,   -0.0,   -0.0,   -0.0,    0.1,    0.1,    0.0,   -0.1,   -0.0,   -0.1,   -0.0,    0.0,   -0.0,    0.0,   -0.1,   -0.1,   -0.0,   -0.0,    0.0,   -0.0,   -0.0,    0.0,    0.0,   -0.1,    0.0,    0.0,    0.0,   -0.0,   -0.1,   -0.1,   -0.0,   -0.1,   -0.1,    0.0,   -0.0,    0.0,   -0.0,    0.1,   -0.0,    0.0,   -0.1,    0.0,   -0.0,    0.1,    0.1,    0.1,    0.0,    0.0,    0.1,    0.1,    0.3,  999.0,  999.0,  999.0,  999.0,  999.0
2015/02/15 11:30,  999.0,  999.0,    0.0,    0.0,   -0.0,    0.0,    0.0,    0.1,    0.0,    0.1,    0.0,   -0.0,   -0.1,   -0.1,   -0.0,   -0.0,   -0.0,    0.0,   -0.1,   -0.0,   -0.0,   -0.0,   -0.0,   -0.0,    0.0,    0.1,   -0.0,    0.0,    0.0,    0.0,    0.1,    0.0,    0.1,    0.0,   -0.0,    0.1,    0.0,    0.0,    0.1,    0.1,    0.1,    0.1,    0.0,    0.0,    0.1,   -0.0,    0.0,    0.0,    0.0,    0.1,    0.0,   -0.0,   -0.0,    0.0,   -0.0,    0.0,   -0.0,    0.1,   -0.0,   -0.1,    0.1,   -0.0,    0.0,   -0.0,    0.0,    0.0,   -0.1,   -0.0,   -0.0,    0.1,   -0.2,   -0.1,   -0.1,   -0.1,    0.0,  999.0,  999.0,  999.0,  999.0,  999.0
2015/02/15 11:40,  999.0,  999.0,   -0.1,   -0.1,   -0.0,    0.0,    0.0,   -0.1,   -0.1,   -0.1,   -0.0,   -0.1,    0.0,    0.0,    0.1,    0.1,    0.1,    0.0,   -0.0,   -0.0,   -0.0,    0.0,   -0.0,    0.1,    0.1,    0.1,    0.1,   -0.0,   -0.0,    0.0,   -0.1,   -0.0,    0.0,    0.1,    0.0,    0.0,   -0.0,    0.0,    0.0,    0.2,    0.1,    0.1,    0.0,    0.1,    0.1,   -0.0,   -0.1,    0.0,   -0.0,   -0.1,   -0.0,    0.0,   -0.1,    0.1,   -0.0,    0.0,   -0.0,    0.0,   -0.0,    0.0,   -0.2,   -0.0,    0.0,    0.1,    0.1,    0.1,    0.0,   -0.0,    0.0,   -0.2,    0.1,    0.0,    0.1,   -0.0,    0.0,  999.0,  999.0,  999.0,  999.0,  999.0
2015/02/15 11:50,  999.0,  999.0,   -0.3,    0.0,    0.1,    0.1,   -0.0,    0.0,    0.0,    0.2,    0.1,    0.0,    0.0,    0.0,   -0.0,    0.0,   -0.0,   -0.0,   -0.1,    0.0,    0.0,   -0.0,   -0.0,   -0.1,   -0.0,   -0.0,   -0.0,    0.1,    0.1,    0.1,    0.0,    0.1,   -0.0,   -0.0,    0.0,    0.0,   -0.0,    0.0,   -0.0,   -0.0,   -0.1,   -0.0,    0.1,    0.1,   -0.0,    0.1,    0.0,    0.1,    0.0,   -0.0,    0.1,    0.1,    0.0,   -0.1,   -0.0,   -0.0,    0.0,    0.1,   -0.0,    0.0,    0.0,    0.0,   -0.0,    0.1,    0.1,    0.2,    0.2,    0.1,    0.0,    0.0,    0.2,   -0.1,   -0.1,   -0.0,   -0.1,    0.0,  999.0,  999.0,  999.0,  999.0
2015/02/15 12:00,  999.0,  999.0,   -0.1,   -0.0,   -0.1,   -0.1,   -0.1,   -0.1,    0.0,    2.1,    2.8,    1.8,    3.0,    2.3,    0.0,   -0.0,    0.0,    0.0,   -0.0,   -0.1,   -0.0,   -0.0,   -0.0,   -0.0,    0.0,    0.1,    0.1,    0.0,    0.0,    0.0,    0.0,    0.1,    0.0,   -0.0,    0.0,    0.0,   -0.0,    0.1,    0.0,   -0.1,   -0.1,   -0.1,    0.0,    0.0,    0.0,   -0.0,   -0.0,   -0.0,   -0.1,    0.0,    0.1,   -0.0,   -0.0,    0.0,    0.1,    0.0,    0.0,    0.0,   -0.1,   -0.1,   -0.0,    0.0,   -0.1,    0.0,    0.1,   -0.0,   -0.1,    0.1,   -0.1,    0.2,   -0.1,    0.1,    0.1,   -0.0,   -0.1,    0.1,  999.0,  999.0,  999.0,   -0.1
2015/02/15 12:10,  999.0,  999.0,   -0.1,    0.0,   -0.1,   -0.1,   -0.1,   -0.1,   -0.0,   -0.0,   -0.0,  999.0,  999.0,   -0.1,    0.0,   -0.0,   -0.1,   -0.1,   -0.0,  999.0,    0.0,    0.1,   -0.1,   -0.0,    0.1,    0.0,  999.0,   -0.0,    0.0,    0.0,   -0.0,    0.1,    0.2,    0.0,   -0.0,   -0.0,    0.1,    0.1,   -0.0,    0.0,   -0.0,   -0.0,   -0.1,    0.0,   -0.0,    0.1,   -0.1,    0.0,    0.1,   -0.0,    0.0,   -0.1,    0.1,   -0.0,   -0.1,   -0.0,   -0.1,    0.1,    0.2,   -0.2,   -0.1,   -0.0,   -0.0,    0.0,   -0.0,   -0.1,    0.0,    0.1,    0.0,   -0.1,    0.0,   -0.0,    0.1,    0.1,   -0.1,    0.1,  999.0,  999.0,  999.0,  999.0
2015/02/15 12:20,  999.0,  999.0,   -0.2,    0.0,   -0.0,   -0.1,   -0.0,   -0.0,   -0.0,   -0.1,   -0.1,   -0.0,    0.0,    0.0,    0.0,    0.0,    0.0,   -0.0,    0.0,    0.0,    0.0,    0.0,   -0.0,   -0.0,   -0.0,    0.0,    0.1,    0.0,    0.0,   -0.0,    0.0,   -0.1,    0.0,    0.1,    0.0,    0.0,    0.2,   -0.0,   -0.0,   -0.1,   -0.1,    0.0,    0.0,   -0.1,   -0.0,   -0.0,    0.0,   -0.0,    0.0,   -0.1,   -0.0,   -0.1,   -0.0,    0.0,    0.1,   -0.0,   -0.1,   -0.1,    0.1,    0.0,   -0.2,   -0.0,    0.0,   -0.0,    0.1,    0.0,    0.1,    0.0,   -0.0,    0.1,    0.0,    0.0,    0.1,   -0.1,   -0.1,  999.0,  999.0,  999.0,  999.0,  999.0
2015/02/15 12:30,  999.0,  999.0,  999.0,   -0.0,   -0.1,   -0.1,    1.6,    1.6,    1.5,    1.4,    1.2,    1.4,    1.5,    1.5,   -0.0,   -0.0,   -0.1,    0.0,   -0.0,   -0.0,   -0.1,    0.0,   -0.0,    0.0,    0.1,   -0.0,    0.0,    0.1,    0.1,    0.0,   -0.0,    0.1,   -0.1,   -0.1,   -0.1,   -0.0,   -0.1,    0.0,    0.0,    0.1,   -0.0,    0.1,   -0.0,   -0.1,   -0.0,    0.1,   -0.0,   -0.0,    0.0,    0.0,   -0.0,   -0.0,   -0.0,    0.0,    0.0,    0.0,   -0.0,   -0.1,   -0.1,    0.0,    0.0,   -0.0,   -0.1,   -0.0,    0.0,    0.1,   -0.1,    0.0,   -0.0,    0.2,    0.2,    0.1,   -0.1,   -0.1,   -0.1,  999.0,  999.0,  999.0,  999.0,  999.0
2015/02/15 12:40,  999.0,  999.0,  999.0,    7.9,    4.2,    7.6,  999.0,   10.8,    8.6,    6.2,   10.3,    5.7,    7.4,    2.1,  999.0,  999.0,  999.0,  999.0,  999.0,   -0.0,  999.0,   -0.1,  999.0,  999.0,    0.1,   -0.0,    0.2,    0.1,  999.0,   -0.0,    0.0,    0.1,   -0.0,   -0.0,   -0.1,   -0.1,   -0.1,    0.2,   -0.0,   -0.0,   -0.2,   -0.1,   -0.0,    0.0,   -0.0,    0.1,  999.0,    0.1,    0.3,    0.0,   -0.0,    0.0,    0.0,    0.0,   -0.0,   -0.1,   -0.0,    0.1,    0.0,    0.0,   -0.1,   -0.1,    0.0,  999.0,  999.0,   -0.3,   -0.3,   -0.0,   -0.1,  999.0,    0.1,  999.0,    0.0,   -0.0,  999.0,  999.0,  999.0,  999.0,  999.0,  999.0
2015/02/15 12:50,  999.0,  999.0,  999.0,    6.5,  999.0,  999.0,   12.8,   13.6,   15.5,   14.8,   15.8,   16.3,   15.7,   15.3,   15.5,  999.0,  999.0,    9.9,  999.0,  999.0,    8.5,    5.3,    5.5,    0.0,  999.0,    0.1,    0.1,    0.0,    0.2,    0.2,   -0.1,  999.0,   -0.1,   -0.0,    0.0,    0.1,   -0.1,   -0.1,    0.1,    0.1,   -0.1,   -0.1,   -0.2,    0.0,   -0.1,   -0.2,   -0.0,    0.0,    0.0,    0.1,    0.0,   -0.0,   -0.0,   -0.1,    0.1,    0.0,   -0.1,    0.1,    0.2,    0.2,    0.1,    0.3,   -0.0,    0.1,   -0.2,    0.0,    0.1,   -0.1,    0.1,    0.1,    0.2,   -0.3,    0.0,    0.1,   -0.0,  999.0,  999.0,  999.0,  999.0,  999.0
2015/02/15 13:00,  999.0,  999.0,   -0.3,    0.1,   -0.1,    0.0,    6.4,   14.4,   14.9,   15.9,   13.7,   14.2,   15.0,  999.0,  999.0,   15.0,  999.0,  999.0,    0.1,  999.0,  999.0,  999.0,    5.4,    0.1,    6.4,    0.0,  999.0,   -0.1,   -0.1,   -0.1,    0.0,  999.0,    0.0,    0.0,    0.0,   -0.1,   -0.0,    0.0,    0.1,    0.2,    0.1,    0.0,   -0.1,   -0.1,   -0.1,   -0.2,   -0.0,   -0.0,   -0.2,    0.1,   -0.1,   -0.0,   -0.1,    0.2,   -0.0,    0.1,   -0.0,    0.0,    0.1,    0.1,   -0.1,    0.0,    0.0,    0.1,   -0.1,   -0.3,   -0.1,   -0.2,   -0.2,    0.1,    0.1,  999.0,   -0.1,    0.1,  999.0,  999.0,  999.0,  999.0,  999.0,  999.0
2015/02/15 13:10,  999.0,  999.0,   -0.1,    0.0,   -0.0,   -0.1,  999.0,  999.0,    6.7,    4.4,  999.0,  999.0,   -0.1,    2.6,    2.0,    2.6,    3.5,    2.5,    2.2,    2.5,  999.0,    2.2,   -0.3,   -0.1,    0.2,   -0.1,    0.0,   -0.1,   -0.0,   -0.2,    0.1,    0.1,    0.1,   -0.0,    0.1,    0.0,   -0.0,    0.0,    0.1,    0.1,   -0.0,   -0.2,    0.0,   -0.0,   -0.1,   -0.2,    0.0,   -0.0,    0.0,    0.0,    0.0,   -0.0,   -0.1,    0.1,    0.1,    0.0,    0.1,    0.0,    0.0,    0.1,    0.0,   -0.1,   -0.0,   -0.2,   -0.2,   -0.0,   -0.0,   -0.1,    0.1,   -0.5,   -0.2,   -0.1,   -0.0,   -0.0,    0.2,    0.3,  999.0,  999.0,  999.0,  999.0
2015/02/15 13:20,  999.0,  999.0,   -0.0,   -0.1,   -0.1,   -0.1,    0.0,    0.1,    0.0,    0.1,    0.0,    0.0,    0.1,    0.1,    0.0,    0.1,    0.2,    0.0,   -0.0,   -0.0,    0.0,   -0.0,    0.1,   -0.1,   -0.1,    0.1,   -0.1,    0.1,    0.0,   -0.1,   -0.0,  999.0,   -0.0,   -0.0,   -0.0,    0.0,   -0.0,   -0.0,    0.1,    0.1,   -0.0,    0.0,    0.0,    0.0,    0.1,    0.0,   -0.0,    0.0,    0.0,    0.1,    0.0,    0.1,   -0.0,   -0.2,   -0.1,   -0.2,   -0.0,   -0.0,    0.1,   -0.0,   -0.0,    0.1,   -0.1,    0.1,  999.0,    0.0,   -0.1,    0.1,    0.1,    0.0,    0.0,   -0.0,    0.1,    0.0,   -0.1,  999.0,  999.0,  999.0,  999.0,  999.0
2015/02/15 13:30,  999.0,  999.0,   -0.1,   -0.1,   -0.1,   -0.0,   -0.0,   -0.0,   -0.0,    0.0,    0.0,    0.2,    0.1,   -0.0,    0.0,    0.0,    0.0,   -0.1,   -0.1,   -0.0,    0.0,   -0.1,    0.1,    0.1,    0.0,   -0.1,   -0.1,    0.1,    0.0,   -0.0,   -0.1,   -0.1,   -0.2,   -0.1,    0.0,   -0.0,    0.0,   -0.0,    0.0,   -0.1,   -0.2,   -0.1,    0.0,   -0.0,    0.0,   -0.0,    0.0,    0.1,    0.1,   -0.0,   -0.0,   -0.1,    0.1,    0.0,    0.0,   -0.1,    0.0,    0.1,    0.0,   -0.0,   -0.0,    0.0,    0.1,    0.1,    0.2,    0.1,    0.1,   -0.0,   -0.1,    0.1,    0.0,   -0.1,   -0.0,   -0.1,    0.2,  999.0,   -0.1,  999.0,  999.0,  999.0
2015/02/15 13:40,  999.0,  999.0,   -0.0,    0.0,    0.1,    0.0,    0.0,   -0.0,   -0.1,    0.0,   -0.0,    0.0,   -0.0,   -0.1,    2.4,    7.9,    4.5,    4.2,   -0.1,    2.1,   -0.0,   -0.0,    0.1,   -0.0,   -0.0,   -0.0,    0.1,  999.0,  999.0,   -0.2,    0.1,    0.1,    0.0,    0.0,   -0.1,   -0.1,   -0.1,    0.1,    0.0,   -0.0,    0.0,    0.1,    0.2,   -0.1,    0.0,    0.1,    0.1,    0.1,    0.1,    0.1,    0.1,    0.1,   -0.1,    0.1,   -0.0,   -0.2,    0.0,   -0.0,    0.0,    0.1,    0.0,   -0.0,    0.0,    0.1,    0.0,    0.1,   -0.1,   -0.1,    0.0,    0.3,    0.1,  999.0,    0.1,   -0.0,   -0.2,   -0.3,  999.0,  999.0,  999.0,  999.0
2015/02/15 13:50,  999.0,  999.0,   -0.3,   -0.1,  999.0,    0.0,  999.0,    3.7,   11.1,  999.0,   11.8,   11.2,   10.7,   12.0,   10.8,   14.6,   17.7,   16.4,  999.0,   16.1,  999.0,  999.0,   10.9,  999.0,  999.0,  999.0,  999.0,  999.0,   -0.2,    0.0,    0.0,    0.0,    0.0,   -0.4,   -0.2,    0.0,    0.0,   -0.0,    0.0,    0.1,   -0.1,   -0.1,    0.2,   -0.1,   -0.1,    0.0,    0.0,    0.1,    0.0,   -0.0,   -0.1,   -0.2,    0.1,   -0.0,   -0.1,   -0.0,   -0.0,   -0.3,   -0.1,    0.2,    0.1,   -0.1,    0.0,   -0.0,   -0.1,   -0.0,   -0.1,    0.1,   -0.1,    0.1,   -0.2,   -0.2,   -0.1,    0.1,    0.1,   -0.1,  999.0,  999.0,  999.0,  999.0
2015/02/15 14:00,  999.0,  999.0,  999.0,    3.0,    8.1,  999.0,    2.3,    7.5,    5.7,   11.8,    5.7,    4.2,  999.0,    5.1,    4.8,    8.5,    9.5,    7.4,    6.6,    6.9,    0.4,    0.1,    0.1,    0.0,    3.5,  999.0,    0.0,    8.4,    5.4,    6.2,  999.0,   -0.2,    0.0,    0.1,   -0.1,   -0.1,   -0.1,   -0.0,    0.1,   -0.1,    0.2,   -0.1,    0.1,    0.0,   -0.0,   -0.2,    0.1,   -0.1,   -0.1,   -0.1,   -0.2,   -0.0,   -0.2,    0.1,   -0.1,   -0.1,    0.0,   -0.3,    0.0,   -0.1,    0.0,   -0.1,   -0.1,    0.0,   -0.1,   -0.1,    0.1,    0.1,   -0.1,    0.3,    0.1,    0.1,   -0.1,   -0.1,    0.2,  999.0,   -0.4,  999.0,  999.0,  999.0
2015/02/15 14:10,  999.0,  999.0,   11.7,   12.6,   14.8,   14.7,   10.9,   15.0,   12.9,   17.1,   18.3,   18.9,   19.5,   19.9,   20.0,   20.7,   20.6,   19.3,   22.3,   15.6,   22.2,   21.8,   23.0,  999.0,   20.0,  999.0,  999.0,  999.0,  999.0,    9.9,  999.0,  999.0,    0.2,   -0.0,   -0.1,   -0.0,    0.2,   -0.0,    0.2,    0.0,   -0.1,    0.1,    0.1,    0.1,   -0.2,   -0.0,    0.1,   -0.0,    0.0,   -0.1,   -0.2,   -0.2,   -0.2,   -0.0,   -0.1,   -0.1,    0.1,    0.1,    0.0,   -0.1,   -0.0,    0.1,    0.1,    0.2,   -0.1,   -0.2,   -0.1,   -0.2,   -0.1,  999.0,   -0.1,    0.0,    0.1,   -0.1,    0.1,  999.0,  999.0,  999.0,  999.0,  999.0
2015/02/15 14:20,  999.0,  999.0,  999.0,  999.0,  999.0,   16.2,  999.0,   15.8,   15.5,   16.2,   17.9,   18.9,   21.0,   22.5,   22.2,   23.1,   21.8,   20.6,  999.0,  999.0,  999.0,  999.0,  999.0,  999.0,  999.0,  999.0,  999.0,    0.1,    0.1,    0.3,   -0.1,    0.3,    0.3,    0.1,    0.0,   -0.1,   -0.0,   -0.0,   -0.0,    0.0,   -0.2,   -0.2,    0.1,   -0.0,   -0.1,    0.1,    0.1,    0.1,    0.0,   -0.0,   -0.0,    0.2,    0.0,    0.0,    0.2,   -0.1,    0.0,    0.1,    0.3,   -0.0,   -0.2,   -0.2,   -0.1,   -0.1,   -0.1,   -0.1,   -0.1,   -0.1,   -0.2,    0.3,  999.0,  999.0,   -0.0,   -0.1,   -0.1,  999.0,  999.0,  999.0,  999.0,  999.0
2015/02/15 14:30,  999.0,  999.0,   19.9,   18.3,  999.0,   22.3,   21.3,   22.7,  999.0,   20.5,   21.0,   20.1,   22.6,   23.1,   18.2,  999.0,  999.0,    9.4,   10.0,  999.0,  999.0,   -0.5,  999.0,  999.0,    0.1,    0.1,    0.0,   -0.1,    0.1,    0.0,    0.3,    0.2,    0.1,    0.0,    0.0,    0.1,    0.1,   -0.1,   -0.1,    0.0,   -0.1,    0.1,    0.1,    0.1,    0.1,    0.0,    0.0,   -0.1,   -0.2,   -0.0,   -0.0,   -0.1,    0.1,    0.0,    0.1,    0.1,   -0.1,   -0.2,   -0.2,    0.0,    0.1,   -0.1,    0.1,    0.2,   -0.1,    0.1,   -0.3,   -0.2,   -0.2,   -0.3,  999.0,   -0.3,   -0.1,    0.1,   -0.1,  999.0,  999.0,  999.0,  999.0,  999.0
2015/02/15 14:40,  999.0,  999.0,   20.7,   18.7,   19.0,   21.2,   20.5,   21.5,   22.4,   21.7,   20.7,   19.6,   20.2,   20.6,   18.7,   20.2,   20.4,   22.0,   21.7,   22.9,   23.6,   22.0,   22.3,  999.0,  999.0,   -0.0,   -0.0,    0.1,   -0.2,   -0.1,   -0.0,    0.0,   -0.1,   -0.0,   -0.1,   -0.1,    0.0,    0.0,   -0.0,    0.1,   -0.0,   -0.2,   -0.1,    0.0,    0.1,    0.0,    0.0,   -0.2,   -0.0,   -0.0,    0.0,    0.0,   -0.0,   -0.0,   -0.1,    0.2,    0.0,   -0.1,    0.1,   -0.1,    0.0,   -0.1,   -0.0,   -0.0,    0.1,    0.1,   -0.0,   -0.0,    0.1,   -0.0,    0.0,    0.0,   -0.0,    0.0,    0.0,  999.0,  999.0,  999.0,  999.0,  999.0
2015/02/15 14:50,  999.0,  999.0,  999.0,   14.5,   17.5,   19.2,   17.5,   19.9,   21.0,   21.2,   21.8,   22.5,   25.4,   24.6,   24.5,   26.3,   27.0,   25.3,   24.6,   24.5,   24.3,   22.7,  999.0,   20.0,   19.9,   19.7,  999.0,  999.0,  999.0,   -0.0,    0.1,    0.0,    0.0,   -0.0,    0.4,    0.1,   -0.0,    0.1,    0.2,   -0.1,   -0.1,   -0.2,    0.2,    0.2,    0.1,    0.1,    0.1,   -0.0,    0.0,   -0.0,   -0.2,   -0.1,   -0.1,   -0.1,   -0.0,   -0.1,    0.0,   -0.2,    0.0,    0.2,    0.0,   -0.2,   -0.1,   -0.0,   -0.1,   -0.1,   -0.0,   -0.1,   -0.0,    0.0,   -0.0,   -0.2,   -0.0,   -0.0,   -0.2,  999.0,  999.0,  999.0,  999.0,  999.0
2015/02/15 15:00,  999.0,  999.0,  999.0,  999.0,  999.0,  999.0,  999.0,   28.3,  999.0,  999.0,   23.4,   23.4,   22.8,   22.9,   22.5,   23.2,   23.1,   22.2,  999.0,  999.0,  999.0,  999.0,  999.0,  999.0,  999.0,  999.0,  999.0,  999.0,  999.0,  999.0,   -0.1,    0.0,   -0.0,   -0.0,  999.0,    0.1,    0.1,    0.0,   -0.0,    0.1,  999.0,  999.0,    0.1,   -0.2,   -0.3,   -0.2,   -0.1,    0.1,    0.1,    0.0,   -0.1,   -0.2,   -0.0,    0.0,   -0.0,   -0.2,   -0.0,    0.2,    0.0,   -0.0,    0.1,   -0.1,   -0.3,  999.0,    0.1,    0.1,   -0.0,    0.1,    0.2,    0.4,   -0.0,  999.0,    0.0,    0.1,  999.0,  999.0,  999.0,  999.0,  999.0,  999.0
2015/02/15 15:10,  999.0,  999.0,    8.4,    9.8,   10.6,   15.7,   15.5,   15.6,   18.5,   20.2,   19.1,   17.5,   20.7,   20.2,   19.3,   19.8,   15.5,   22.8,  999.0,   10.9,   10.3,   10.5,    6.5,    7.7,    5.1,    8.6,    0.3,    0.3,   -0.1,    0.1,    0.0,    0.2,    0.0,   -0.1,    0.1,   -0.1,    0.3,    0.0,   -0.1,   -0.1,   -0.1,   -0.1,   -0.1,   -0.0,    0.0,    0.0,   -0.1,   -0.0,   -0.0,   -0.1,   -0.0,   -0.3,    0.1,    0.0,   -0.0,   -0.2,   -0.0,   -0.0,    0.1,    0.1,   -0.0,   -0.0,    0.1,   -0.0,   -0.2,    0.2,    0.2,    0.0,    0.1,   -0.1,    0.0,    0.1,    0.1,    0.0,    0.1,  999.0,  999.0,  999.0,  999.0,  999.0
2015/02/15 15:20,  999.0,  999.0,  999.0,  999.0,   13.5,  999.0,   15.2,   17.2,   18.3,   18.3,   19.0,   20.4,   19.4,   19.5,   19.6,   20.0,   19.8,   20.2,   21.7,   21.8,   22.1,   25.5,   23.6,   21.5,  999.0,   23.6,   22.0,  999.0,  999.0,  999.0,  999.0,  999.0,    0.3,    0.2,   -0.1,    0.1,    0.1,    0.0,   -0.1,   -0.0,   -0.4,   -0.3,    0.1,   -0.0,   -0.2,   -0.1,    0.1,   -0.1,    0.1,    0.0,    0.0,   -0.0,    0.0,   -0.1,   -0.1,   -0.0,   -0.3,    0.0,    0.1,   -0.1,   -0.1,    0.2,    0.0,    0.0,   -0.2,   -0.0,   -0.1,   -0.3,   -0.2,   -0.0,    0.0,   -0.0,    0.1,    0.0,  999.0,  999.0,  999.0,  999.0,  999.0,  999.0
2015/02/15 15:30,  999.0,  999.0,   12.8,   17.1,   16.9,   17.8,   18.4,   17.7,   17.7,   18.4,   18.5,   19.1,   19.5,   19.3,   19.3,   21.2,   21.3,   22.0,   21.2,   21.1,   18.7,  999.0,   17.9,  999.0,  999.0,  999.0,  999.0,  999.0,  999.0,   -0.5,   -0.6,   -0.1,   -0.0,   -0.1,   -0.0,   -0.1,   -0.1,   -0.0,    0.1,    0.3,   -0.1,   -0.1,    0.2,    0.2,   -0.0,    0.0,   -0.1,    0.0,   -0.0,    0.0,    0.1,   -0.1,   -0.1,   -0.2,    0.0,   -0.0,   -0.2,    0.1,    0.1,    0.0,    0.0,    0.2,    0.1,   -0.0,    0.0,   -0.1,   -0.1,   -0.1,   -0.0,   -0.1,    0.2,    0.0,    0.1,   -0.1,    0.1,  999.0,  999.0,  999.0,  999.0,  999.0
2015/02/15 15:40,  999.0,  999.0,   15.6,   14.9,   17.5,   17.4,   17.9,   18.2,   17.1,   17.7,   18.3,   19.0,   16.5,   14.4,   13.8,   21.6,   24.1,   23.8,   23.0,  999.0,   24.3,   22.7,   23.4,   11.4,  999.0,  999.0,  999.0,   -0.0,   -0.2,   -0.2,    0.3,    0.1,    0.0,   -0.0,   -0.0,   -0.0,    0.0,   -0.0,    0.0,    0.0,    0.1,   -0.0,   -0.1,   -0.1,   -0.0,   -0.1,    0.0,    0.0,   -0.1,   -0.1,    0.2,   -0.0,   -0.0,    0.0,   -0.0,    0.0,   -0.0,   -0.0,   -0.0,    0.1,   -0.0,    0.0,   -0.1,   -0.1,  999.0,   -0.0,    0.1,   -0.1,   -0.2,    0.2,    0.1,    0.0,   -0.1,   -0.1,    0.2,   -0.1,  999.0,  999.0,  999.0,  999.0
2015/02/15 15:50,  999.0,  999.0,   -0.4,    4.6,    5.9,   12.9,   19.2,   19.8,   11.3,   15.2,   16.5,   14.7,   14.2,    5.8,    0.0,   -0.1,    0.0,    0.0,    0.0,   -0.0,  999.0,  999.0,  999.0,   -0.0,   -0.1,   -0.1,   -0.1,  999.0,    0.0,   -0.0,    0.1,    0.1,    0.1,    0.0,   -0.1,   -0.1,   -0.1,    0.0,    0.0,    0.0,   -0.1,   -0.1,   -0.2,   -0.1,    0.0,   -0.1,   -0.1,    0.0,    0.0,    0.1,   -0.0,   -0.1,    0.1,    0.0,    0.0,    0.1,    0.1,    0.1,    0.0,   -0.0,    0.0,   -0.1,   -0.1,   -0.0,  999.0,   -0.1,   -0.0,   -0.0,    0.0,    0.1,    0.1,    0.4,    0.1,    0.3,  999.0,  999.0,  999.0,  999.0,  999.0,  999.0
2015/02/15 16:00,  999.0,  999.0,   -0.1,    0.1,    0.0,    0.0,   -0.1,   -0.0,   -0.0,   -0.0,   -0.0,    0.0,    0.1,    0.0,   -0.1,   -0.1,   -0.1,   -0.0,    0.0,   -0.1,  999.0,    0.0,   -0.0,    0.1,   -0.0,   -0.1,    0.0,   -0.0,   -0.1,    0.1,   -0.0,    0.0,   -0.0,    0.0,   -0.0,   -0.1,    0.1,    0.0,   -0.0,    0.0,   -0.0,    0.0,   -0.0,   -0.0,    0.0,   -0.0,   -0.0,   -0.1,   -0.0,   -0.0,   -0.1,   -0.0,   -0.0,   -0.1,   -0.1,   -0.1,    0.0,    0.0,    0.1,    0.0,   -0.1,   -0.0,   -0.0,   -0.0,   -0.0,   -0.0,   -0.1,   -0.1,    0.0,    0.1,    0.0,    0.1,   -0.1,    0.2,  999.0,  999.0,  999.0,  999.0,  999.0,  999.0
2015/02/15 16:10,  999.0,  999.0,   -0.1,   -0.1,   -0.1,    0.1,  999.0,   -0.1,   -0.1,    0.1,    0.2,    0.1,    0.0,    0.1,  999.0,  999.0,    0.1,  999.0,   -0.0,   -0.0,   -0.0,   -0.0,   -0.1,    0.1,   -0.1,   -0.1,  999.0,  999.0,    0.1,    0.4,  999.0,    0.0,    0.0,    0.0,    0.0,    0.1,    0.1,   -0.1,   -0.0,   -0.0,    0.0,   -0.0,    0.0,    0.0,   -0.1,   -0.0,   -0.0,   -0.1,   -0.0,    0.0,   -0.1,   -0.0,   -0.0,   -0.0,    0.0,   -0.1,   -0.0,   -0.1,   -0.2,   -0.1,   -0.1,    0.0,    0.1,    0.0,   -0.0,   -0.0,    0.1,    0.1,   -0.1,   -0.3,  999.0,   -0.2,    0.1,    0.1,  999.0,  999.0,  999.0,  999.0,  999.0,  999.0
2015/02/15 16:20,  999.0,  999.0,   -0.1,    0.1,   -0.0,    0.1,   -0.2,   -0.1,   -0.1,   -0.1,   -0.0,   -0.0,    0.0,    0.0,   -0.0,   -0.1,  999.0,   -0.2,   -0.2,   -0.1,    0.1,    0.0,    0.2,    0.1,   -0.1,    0.1,    0.1,    0.3,    0.2,    0.2,    0.1,    0.2,    0.1,   -0.0,   -0.2,   -0.1,    0.0,    0.1,    0.0,    0.1,   -0.1,   -0.2,   -0.1,   -0.1,    0.2,    0.1,   -0.1,    0.1,    0.2,   -0.1,   -0.0,   -0.1,   -0.0,   -0.1,   -0.1,   -0.0,    0.0,    0.2,   -0.1,    0.0,    0.1,   -0.1,    0.0,    0.1,    0.0,   -0.0,    0.0,    0.1,   -0.0,   -0.1,  999.0,   -0.0,  999.0,  999.0,    0.1,  999.0,  999.0,  999.0,  999.0,  999.0
2015/02/15 16:30,  999.0,  999.0,   -0.1,    0.0,    0.0,    0.1,   -0.2,   -0.1,   -0.0,   -0.1,    0.1,   -0.0,  999.0,   -0.0,    0.0,   -0.1,   -0.1,    0.0,    0.0,    0.0,   -0.0,    0.1,   -0.1,   -0.1,   -0.1,    0.0,    0.0,    0.1,    0.2,    0.0,    0.0,    0.0,    0.0,    0.1,    0.1,    0.2,    0.1,   -0.1,   -0.1,    0.2,   -0.1,   -0.0,    0.1,   -0.0,    0.0,   -0.0,   -0.2,   -0.0,    0.0,   -0.0,    0.1,   -0.1,    0.1,   -0.0,   -0.1,    0.2,    0.0,   -0.0,    0.0,   -0.0,    0.0,   -0.0,    0.1,    0.1,    0.1,   -0.1,   -0.1,   -0.0,   -0.1,   -0.2,   -0.0,    0.0,    0.2,  999.0,   -0.1,  999.0,  999.0,  999.0,  999.0,  999.0
2015/02/15 16:40,  999.0,  999.0,   -0.0,    0.1,    0.0,   -0.0,   -0.0,  999.0,    0.0,   -0.0,   -0.1,   -0.0,   -0.1,   -0.1,    0.1,  999.0,  999.0,    0.1,   -0.0,   -0.1,    0.1,    0.1,    0.0,    0.0,    0.1,   -0.1,    0.2,    0.0,   -0.1,   -0.1,    0.1,    0.1,    0.1,   -0.0,    0.1,    0.1,    0.0,    0.0,    0.0,    0.0,    0.0,   -0.0,   -0.0,   -0.1,   -0.1,    0.1,    0.1,    0.2,   -0.1,    0.0,   -0.1,   -0.0,   -0.0,    0.2,   -0.1,    0.0,   -0.0,    0.0,    0.1,    0.2,    0.1,    0.1,   -0.1,    0.0,    0.1,   -0.0,    0.2,   -0.1,   -0.0,   -0.1,   -0.1,  999.0,    0.4,    0.4,    0.1,  999.0,  999.0,  999.0,  999.0,  999.0
2015/02/15 16:50,  999.0,  999.0,    0.0,   -0.0,    0.1,    0.1,   -0.1,   -0.1,   -0.1,   -0.0,   -0.1,    0.0,   -0.2,   -0.1,    0.1,    0.1,    0.1,    0.0,   -0.1,   -0.1,   -0.1,   -0.1,    0.0,    0.0,    0.0,   -0.2,    0.2,   -0.1,   -0.0,   -0.0,   -0.1,    0.1,   -0.0,   -0.0,   -0.1,   -0.0,   -0.0,   -0.2,   -0.1,    0.1,   -0.1,   -0.0,    0.1,   -0.0,   -0.0,   -0.1,   -0.0,   -0.0,   -0.1,   -0.1,   -0.2,   -0.1,   -0.1,   -0.1,   -0.1,   -0.0,   -0.1,   -0.0,    0.1,   -0.1,    0.0,    0.1,   -0.1,   -0.0,    0.0,   -0.1,   -0.1,   -0.0,    0.1,   -0.1,    0.3,   -0.0,   -0.1,   -0.3,   -0.0,  999.0,  999.0,  999.0,  999.0,  999.0
2015/02/15 17:00,  999.0,  999.0,   -0.2,   -0.1,   -0.0,   -0.0,   -0.0,    0.1,  999.0,    0.0,   -0.1,   -0.0,   -0.1,   -0.0,   -0.1,  999.0,  999.0,  999.0,    0.2,    0.1,   -0.0,   -0.0,    0.0,    0.1,    0.1,   -0.1,   -0.0,   -0.0,   -0.1,   -0.0,    0.0,   -0.0,   -0.0,    0.0,    0.0,   -0.0,    0.0,    0.0,    0.0,   -0.1,    0.0,   -0.1,   -0.0,    0.0,    0.1,   -0.1,    0.1,    0.1,    0.0,   -0.1,   -0.0,   -0.1,    0.0,    0.0,   -0.0,   -0.1,    0.0,    0.0,    0.1,    0.1,   -0.1,    0.1,    0.1,   -0.0,   -0.0,    0.2,   -0.2,    0.1,    0.0,    0.2,    0.1,    0.1,   -0.0,   -0.0,   -0.1,  999.0,  999.0,  999.0,  999.0,  999.0
2015/02/15 17:10,  999.0,  999.0,   -0.2,   -0.1,    0.0,    0.0,   -0.0,   -0.1,    0.0,   -0.1,    0.1,    0.3,    0.2,    0.1,    0.0,   -0.0,   -0.1,   -0.0,    0.0,    0.0,   -0.1,   -0.0,   -0.1,   -0.0,   -0.0,    0.0,   -0.1,   -0.1,    0.1,   -0.1,   -0.0,    0.0,   -0.0,   -0.0,    0.0,    0.0,   -0.1,   -0.0,   -0.0,    0.0,   -0.0,   -0.0,    0.1,   -0.0,    0.0,   -0.0,    0.1,    0.2,    0.0,   -0.0,   -0.0,   -0.1,   -0.1,   -0.1,   -0.0,    0.0,    0.0,   -0.1,    0.0,   -0.0,    0.1,   -0.1,   -0.0,    0.0,   -0.1,    0.1,   -0.1,   -0.1,   -0.0,   -0.2,    0.2,    0.0,   -0.2,   -0.1,   -0.1,    0.1,  999.0,  999.0,  999.0,  999.0
2015/02/15 17:20,  999.0,  999.0,   -0.0,    0.0,    0.0,    0.0,   -0.1,   -0.1,  999.0,   -0.1,   -0.1,   -0.1,   -0.0,    0.1,    0.0,    0.0,  999.0,    0.1,    0.0,   -0.0,   -0.1,   -0.1,   -0.0,   -0.0,   -0.0,    0.0,    0.2,    0.1,   -0.0,    0.0,   -0.1,   -0.0,    0.0,   -0.0,   -0.1,   -0.0,   -0.0,    0.1,    0.1,   -0.1,   -0.1,   -0.0,   -0.1,   -0.0,   -0.1,   -0.2,   -0.1,   -0.1,   -0.1,   -0.2,   -0.2,   -0.0,   -0.0,   -0.1,    0.1,    0.1,    0.0,   -0.1,   -0.2,    0.1,    0.0,   -0.2,    0.1,    0.0,    0.1,    0.1,   -0.1,   -0.1,   -0.0,   -0.1,   -0.2,    0.1,    0.0,   -0.1,    0.1,  999.0,  999.0,  999.0,  999.0,  999.0
2015/02/15 17:30,  999.0,  999.0,   -0.0,    0.1,   -0.0,    0.1,    0.1,    0.1,    0.0,   -0.0,   -0.1,   -0.1,   -0.1,   -0.0,    0.0,    0.0,    0.1,   -0.0,    0.0,    0.0,   -0.0,    0.1,    0.0,   -0.0,    0.0,   -0.0,   -0.0,    0.1,   -0.2,   -0.0,   -0.1,   -0.1,   -0.0,    0.1,   -0.1,   -0.1,    0.0,    0.1,   -0.0,   -0.0,   -0.1,   -0.1,    0.0,    0.1,    0.1,   -0.0,   -0.2,    0.1,    0.1,    0.0,   -0.1,    0.0,    0.0,   -0.0,   -0.2,   -0.0,    0.1,   -0.1,   -0.0,   -0.1,    0.0,   -0.2,    0.1,   -0.1,    0.0,   -0.1,    0.2,    0.0,    0.1,   -0.1,    0.1,    0.1,    0.2,    0.1,    0.0,   -0.1,  999.0,  999.0,  999.0,  999.0
2015/02/15 17:40,  999.0,  999.0,    0.0,   -0.0,    0.0,   -0.0,   -0.0,    0.1,    0.0,    0.0,    0.0,   -0.1,    0.0,    0.1,    0.1,   -0.0,    0.0,   -0.0,   -0.0,    0.1,    0.1,    0.1,   -0.0,   -0.1,   -0.0,   -0.1,    0.0,    0.1,   -0.0,   -0.1,   -0.0,   -0.0,    0.0,   -0.0,    0.1,    0.0,    0.0,    0.0,    0.0,    0.0,   -0.0,   -0.2,    0.0,   -0.2,    0.1,    0.1,    0.1,   -0.0,   -0.1,   -0.1,   -0.0,   -0.0,   -0.1,   -0.0,    0.0,    0.1,   -0.0,    0.1,   -0.1,    0.0,   -0.2,    0.2,   -0.1,   -0.0,    0.3,   -0.3,    0.0,    0.4,   -0.3,    0.1,    0.3,   -0.0,   -0.1,    0.3,    0.0,  999.0,  999.0,  999.0,  999.0,  999.0
2015/02/15 17:50,  999.0,  999.0,   -0.1,   -0.1,    0.0,    0.0,    0.0,    0.0,    0.1,   -0.0,    0.0,    0.0,    0.0,   -0.0,    0.1,    0.1,    0.1,    0.0,   -0.1,    0.0,   -0.0,    0.0,   -0.0,    0.0,   -0.1,   -0.1,   -0.0,   -0.0,   -0.0,   -0.0,    0.0,    0.2,    0.0,    0.1,   -0.0,   -0.0,    0.0,    0.1,   -0.1,    0.1,    0.0,   -0.1,   -0.0,    0.1,    0.0,   -0.0,   -0.1,   -0.0,   -0.1,   -0.1,    0.0,    0.1,    0.1,    0.0,    0.1,    0.1,   -0.1,   -0.0,    0.1,   -0.0,   -0.1,   -0.0,    0.1,   -0.1,    0.1,   -0.0,   -0.1,    0.0,    0.1,    0.1,  999.0,    0.0,   -0.2,   -0.1,    0.1,  999.0,  999.0,  999.0,  999.0,  999.0
2015/02/15 18:00,  999.0,  999.0,   -0.1,   -0.1,   -0.1,    0.1,   -0.0,    0.1,   -0.0,    0.1,    0.0,   -0.0,    0.0,    0.0,   -0.1,   -0.0,   -0.1,   -0.1,   -0.1,   -0.1,   -0.0,    0.1,    0.1,   -0.0,   -0.0,   -0.1,   -0.0,   -0.0,    0.0,   -0.1,    0.1,   -0.1,    0.1,   -0.0,    0.1,   -0.1,   -0.1,   -0.0,   -0.0,    0.1,    0.1,    0.0,   -0.1,   -0.1,   -0.1,   -0.1,   -0.1,    0.0,    0.1,   -0.0,    0.0,    0.0,    0.0,   -0.2,   -0.1,    0.1,   -0.3,   -0.2,    0.2,   -0.1,   -0.1,    0.3,    0.2,    0.1,   -0.4,    0.0,    0.1,  999.0,   -0.2,    0.3,    0.3,  999.0,   -0.1,  999.0,    0.2,  999.0,  999.0,  999.0,  999.0,  999.0
2015/02/15 18:10,  999.0,  999.0,   -0.1,    0.0,    0.1,    0.0,    0.1,    0.1,   -0.2,    0.0,   -0.1,   -0.0,    0.1,   -0.1,    0.0,   -0.0,   -0.1,    0.0,    0.0,    0.1,   -0.1,   -0.1,   -0.1,    0.1,   -0.0,   -0.1,   -0.1,   -0.0,   -0.2,   -0.0,   -0.1,    0.0,   -0.0,   -0.1,    0.1,   -0.0,    0.0,    0.2,    0.1,    0.1,    0.0,    0.0,    0.1,   -0.1,   -0.1,   -0.1,    0.2,    0.0,   -0.1,   -0.1,   -0.2,   -0.1,    0.0,    0.0,   -0.0,    0.1,    0.2,    0.2,    0.0,   -0.3,    0.1,   -0.2,    0.2,   -0.1,    0.0,   -0.0,   -0.1,   -0.1,  999.0,  999.0,    0.3,  999.0,  999.0,  999.0,   -0.2,    0.2,  999.0,  999.0,  999.0,  999.0
2015/02/15 18:20,  999.0,  999.0,   -0.1,    0.1,    0.0,   -0.1,   -0.2,   -0.1,   -0.1,   -0.2,   -0.1,   -0.1,    0.1,    0.1,   -0.1,   -0.2,   -0.1,  999.0,   -0.0,   -0.0,    0.0,    0.0,    0.0,    0.1,   -0.0,    0.0,    0.1,   -0.1,   -0.2,   -0.1,   -0.1,  999.0,   -0.1,   -0.1,   -0.0,   -0.0,   -0.0,   -0.1,   -0.1,    0.0,   -0.1,   -0.2,   -0.1,    0.1,    0.0,    0.1,    0.0,    0.0,   -0.0,    0.2,    0.0,    0.2,   -0.0,   -0.1,    0.2,    0.1,    0.0,    0.1,    0.2,   -0.2,   -0.0,   -0.2,   -0.1,    0.2,   -0.1,   -0.1,    0.1,   -0.8,    0.1,  999.0,  999.0,   -0.0,  999.0,  999.0,  999.0,  999.0,  999.0,  999.0,  999.0,  999.0
2015/02/15 18:30,  999.0,  999.0,   -0.1,    0.1,    0.1,   -0.0,   -0.1,    0.1,   -0.1,    0.1,    0.1,   -0.1,    0.0,    0.0,   -0.1,   -0.0,    0.0,   -0.1,    0.1,   -0.0,   -0.1,   -0.1,   -0.1,    0.0,    0.0,   -0.0,    0.0,    0.1,    0.2,    0.1,    0.2,    0.2,    0.1,    0.1,   -0.0,    0.1,    0.2,   -0.1,    0.0,    0.2,    0.0,    0.1,   -0.1,    0.1,   -0.0,   -0.0,    0.0,   -0.2,   -0.2,    0.0,   -0.1,    0.2,   -0.1,    0.1,   -0.2,   -0.1,    0.2,    0.0,   -0.1,   -0.3,   -0.0,    0.3,   -0.2,    0.2,    0.1,   -0.1,    0.3,  999.0,  999.0,   -0.1,  999.0,    0.1,  999.0,  999.0,    0.0,  999.0,  999.0,  999.0,  999.0,  999.0
2015/02/15 18:40,  999.0,  999.0,   -0.1,    0.3,   -0.0,   -0.0,    0.2,    0.1,    0.3,    0.1,    0.5,    0.3,    0.1,   -0.1,    0.1,   -0.0,   -0.1,    0.0,   -0.0,    0.1,    0.1,    0.0,    0.2,    0.1,    0.1,    0.0,    0.1,   -0.1,    0.2,    0.1,   -0.1,   -0.1,   -0.1,   -0.0,   -0.1,    0.1,    0.2,    0.3,   -0.1,   -0.0,    0.1,    0.1,   -0.0,   -0.1,    0.0,   -0.1,   -0.2,   -0.0,   -0.2,    0.1,   -0.1,   -0.2,    0.1,    0.0,    0.0,   -0.1,   -0.0,    0.0,    0.0,   -0.1,   -0.1,    0.1,   -0.1,   -0.1,   -0.1,    0.4,  999.0,    0.3,    0.1,  999.0,    0.0,    0.1,   -0.3,  999.0,  999.0,  999.0,  999.0,  999.0,  999.0,  999.0
2015/02/15 18:50,  999.0,  999.0,    0.5,    0.5,    0.2,    0.6,    0.5,    0.3,    0.4,    0.4,    0.5,    0.6,    0.6,    0.1,   -0.6,    1.1,    0.3,    0.6,    0.4,    0.2,    0.0,   -0.0,    0.0,    0.1,    0.0,   -0.1,   -0.1,    0.0,   -0.0,    0.0,   -0.0,   -0.1,   -0.2,   -0.2,   -0.1,    0.1,   -0.2,   -0.1,    0.0,   -0.0,   -0.2,    0.1,   -0.0,   -0.1,    0.0,   -0.0,   -0.0,    0.1,   -0.1,    0.0,   -0.1,   -0.4,   -0.0,    0.1,   -0.2,   -0.1,    0.1,   -0.1,   -0.1,   -0.2,    0.0,   -0.2,   -0.1,    0.2,   -0.1,   -0.3,    0.0,  999.0,   -0.4,  999.0,    0.0,  999.0,  999.0,  999.0,  999.0,  999.0,  999.0,  999.0,  999.0,  999.0
2015/02/15 19:00,  999.0,    0.0,    0.2,    0.8,    0.0,   -0.1,    0.7,    1.6,    1.8,    3.6,    2.5,    1.1,    2.3,    3.2,  999.0,    1.8,    1.7,    1.2,    0.9,    1.0,    0.6,   -0.2,    0.1,    0.0,    0.1,    0.2,    0.1,   -0.0,    0.1,   -0.1,    0.0,   -0.0,    0.1,    0.1,   -0.2,   -0.1,   -0.2,   -0.1,   -0.1,   -0.3,   -0.6,   -0.2,    0.0,   -0.0,    0.0,    0.2,   -0.1,    0.0,    0.2,    0.0,   -0.2,   -0.4,   -0.2,    0.2,   -0.1,   -0.0,   -0.1,    0.0,    0.3,   -0.2,    0.1,   -0.0,    0.1,   -0.2,   -0.2,   -0.1,    0.0,  999.0,  999.0,  999.0,  999.0,  999.0,  999.0,  999.0,   -0.2,  999.0,  999.0,  999.0,  999.0,  999.0
2015/02/15 19:10,  999.0,    0.2,    0.5,    0.3,    1.4,    0.9,    0.4,    1.0,    0.8,    3.1,    3.0,  999.0,  999.0,  999.0,  999.0,  999.0,    0.9,    1.0,    1.4,    0.8,    0.4,    0.1,    0.1,    0.1,   -0.1,    0.4,    0.2,   -0.0,    0.0,   -0.0,    0.0,   -0.1,   -0.1,    0.1,   -0.2,   -0.2,  999.0,   -0.2,    0.0,   -0.2,   -0.4,   -0.0,    0.0,   -0.1,   -0.0,    0.1,    0.3,   -0.1,   -0.1,   -0.2,   -0.0,   -0.1,   -0.1,   -0.0,    0.3,   -0.1,   -0.2,  999.0,   -0.1,   -0.2,    0.0,   -0.2,    0.2,    0.3,    0.1,    0.4,    0.3,  999.0,    0.0,  999.0,   -0.0,  999.0,  999.0,  999.0,  999.0,  999.0,  999.0,  999.0,  999.0,  999.0
2015/02/15 19:20,  999.0,    0.2,    0.5,    0.4,    0.6,    0.7,    1.3,    1.9,    2.2,    1.6,   -0.0,  999.0,    0.2,   -0.3,   -0.0,    0.2,    0.7,    1.1,    1.1,    0.6,    0.2,   -0.1,   -0.1,    0.1,    0.1,    0.2,   -0.1,   -0.1,    0.1,   -0.2,   -0.1,   -0.1,    0.0,   -0.3,   -0.1,   -0.1,   -0.0,    0.3,    0.2,    0.1,   -0.2,   -0.0,    0.0,    0.1,    0.0,   -0.2,    0.0,   -0.1,   -0.0,    0.1,    0.2,    0.1,    0.1,   -0.1,   -0.2,    0.0,    0.1,    0.1,   -0.0,    0.1,   -0.1,   -0.5,   -0.2,   -0.4,    0.1,    0.0,    0.2,    0.1,  999.0,  999.0,  999.0,   -0.4,  999.0,  999.0,   -0.1,  999.0,  999.0,  999.0,  999.0,  999.0
2015/02/15 19:30,  999.0,   -1.0,    0.1,    0.2,    0.4,    0.1,    0.5,    1.4,    1.0,   -0.7,    0.1,    1.5,    1.1,    0.5,    0.7,    1.9,    2.2,    1.4,    0.6,    0.2,   -0.0,    0.1,    0.0,    0.1,    0.2,    0.2,   -0.1,    0.0,   -0.1,    0.1,   -0.0,    0.0,   -0.2,    0.0,   -0.1,   -0.1,   -0.4,   -0.2,   -0.1,    0.1,  999.0,  999.0,   -0.2,   -0.2,   -0.1,    0.1,   -0.1,   -0.1,    0.0,    0.1,    0.1,    0.2,   -0.1,    0.0,    0.1,   -0.0,   -0.2,   -0.1,   -0.1,    0.0,   -0.4,  999.0,    0.0,   -0.1,  999.0,  999.0,  999.0,   -0.1,  999.0,  999.0,  999.0,  999.0,  999.0,  999.0,  999.0,    0.0,  999.0,  999.0,  999.0,  999.0
2015/02/15 19:40,  999.0,    0.3,    0.2,    0.5,   -0.2,   -1.2,    0.3,    0.5,    0.1,    0.2,   -0.6,   -0.3,    0.2,   -0.3,   -0.0,   -0.1,   -0.1,    0.5,    0.1,    0.1,   -0.0,   -0.0,   -0.1,    0.1,   -0.1,    0.0,   -0.2,   -0.2,   -0.1,    0.0,   -0.2,   -0.0,    0.0,    0.1,   -0.1,   -0.2,    0.1,   -0.0,   -0.1,   -0.2,   -0.4,   -0.0,    0.0,   -0.1,   -0.1,   -0.1,   -0.1,    0.0,   -0.0,   -0.0,   -0.2,   -0.0,   -0.0,   -0.1,    0.1,    0.1,   -0.1,   -0.1,   -0.3,   -0.1,   -0.0,    0.3,   -0.1,   -0.1,   -0.1,    0.0,   -0.1,   -0.2,    0.3,  999.0,  999.0,  999.0,  999.0,   -0.1,  999.0,  999.0,  999.0,  999.0,  999.0,  999.0
2015/02/15 19:50,  999.0,    0.0,   -0.1,    0.6,    1.0,    0.6,    0.8,    0.6,    0.3,    0.4,    0.7,    0.3,    0.8,   -0.1,    0.4,    0.3,    0.4,    0.2,    0.6,    0.4,    0.4,    0.6,    0.4,    0.0,    0.0,   -0.0,   -0.0,    0.0,   -0.0,    0.1,    0.0,   -0.1,    0.1,   -0.0,    0.0,   -0.1,    0.3,   -0.1,   -0.2,    0.1,   -0.3,    0.2,    0.4,   -0.4,   -0.4,   -0.1,    0.1,   -0.0,   -0.2,    0.2,   -0.0,   -0.2,   -0.2,    0.1,   -0.1,   -0.1,    0.1,    0.1,    0.2,    0.3,   -0.4,    0.0,    0.2,   -0.2,   -0.4,   -0.1,  999.0,  999.0,   -0.1,  999.0,  999.0,  999.0,  999.0,  999.0,  999.0,  999.0,  999.0,  999.0,  999.0,  999.0
2015/02/15 20:00,  999.0,    0.2,    1.2,    0.7,    0.4,    0.1,    0.9,    0.3,    0.2,    0.5,    1.1,    0.2,    0.6,    0.2,    0.3,    0.1,    0.1,    0.1,    0.0,   -0.0,    0.1,   -0.0,    0.1,    0.1,    0.1,   -0.1,    0.1,    0.1,   -0.1,    0.0,   -0.1,    0.1,   -0.0,    0.1,    0.1,   -0.1,    0.1,   -0.3,   -0.3,   -0.3,   -0.2,  999.0,   -0.1,   -0.2,   -0.4,   -0.1,   -0.1,    0.2,    0.1,   -0.1,    0.2,    0.0,   -0.0,   -0.1,   -0.1,   -0.0,   -0.0,    0.2,    0.0,   -0.2,    0.1,   -0.1,    0.2,   -0.0,   -0.2,  999.0,  999.0,  999.0,  999.0,  999.0,  999.0,  999.0,  999.0,  999.0,  999.0,  999.0,  999.0,  999.0,  999.0,  999.0
2015/02/15 20:10,  999.0,    0.6,   -0.4,    0.2,    0.1,    0.6,    0.7,    0.5,    0.7,    0.2,    0.7,    1.3,   -0.0,    0.0,    0.3,   -0.3,   -0.2,   -0.0,   -0.1,    0.0,    0.0,    0.1,    0.2,    0.1,   -0.2,    0.0,   -0.1,    0.0,   -0.0,    0.0,   -0.1,   -0.1,   -0.1,   -0.2,    0.1,    0.1,    0.0,   -0.0,    0.0,   -0.5,   -0.3,  999.0,   -0.1,    0.3,   -0.1,    0.2,    0.4,   -0.2,   -0.3,    0.3,   -0.0,   -0.0,    0.1,    0.1,   -0.1,    0.1,    0.2,   -0.1,   -0.5,   -0.2,   -0.0,    0.0,   -0.1,   -0.0,    0.2,   -0.0,    0.1,    0.3,  999.0,  999.0,  999.0,  999.0,  999.0,  999.0,  999.0,  999.0,  999.0,  999.0,  999.0,  999.0
2015/02/15 20:20,  999.0,    0.4,    0.4,    0.4,    0.6,    0.6,    0.7,    0.5,    1.2,    1.1,    1.4,  999.0,  999.0,  999.0,   -1.2,    0.2,    0.1,   -0.1,   -0.1,   -0.0,    0.1,    0.2,   -0.0,   -0.1,   -0.1,    0.1,   -0.1,    0.0,    0.1,   -0.1,    0.1,    0.1,    0.0,    0.1,   -0.1,   -0.1,    0.2,   -0.1,  999.0,   -0.3,   -0.3,   -0.1,   -0.0,    0.5,   -0.0,    0.1,    0.2,   -0.0,   -0.1,    0.0,   -0.2,    0.1,    0.0,   -0.1,   -0.1,   -0.4,   -0.2,    0.1,    0.2,   -0.1,    0.1,   -0.0,    0.1,    0.0,    0.0,   -0.0,    0.0,   -0.0,    0.1,   -0.3,   -0.2,  999.0,  999.0,  999.0,  999.0,  999.0,  999.0,  999.0,  999.0,  999.0
2015/02/15 20:30,  999.0,  999.0,    0.2,   -0.2,   -0.1,    0.1,    0.1,   -0.2,   -0.0,   -0.5,   -0.2,   -0.6,    0.1,   -0.4,   -0.2,   -0.4,   -0.1,    0.1,   -0.1,   -0.0,   -0.1,   -0.1,   -0.1,   -0.3,    0.0,   -0.2,    0.1,    0.0,    0.2,    0.0,    0.2,   -0.1,    0.1,    0.1,    0.2,    0.2,   -0.0,   -0.7,   -0.0,   -0.2,    0.0,   -0.5,   -0.3,    0.2,    0.3,    0.0,   -0.2,   -0.6,   -0.4,   -0.2,   -0.1,    0.2,   -0.1,   -0.1,    0.0,   -0.1,   -0.1,    0.0,   -0.0,   -0.0,   -0.0,   -0.1,    0.0,    0.1,    0.1,   -0.0,   -0.0,    0.0,    0.0,    0.0,   -0.2,   -0.0,  999.0,  999.0,  999.0,  999.0,  999.0,  999.0,  999.0,  999.0
2015/02/15 20:40,  999.0,  999.0,   -0.1,    0.1,    0.2,  999.0,  999.0,    0.0,    0.1,   -0.1,   -0.3,   -0.2,   -0.3,   -0.1,   -0.1,   -0.2,   -0.1,    0.1,    0.0,   -0.0,   -0.1,   -0.0,    0.0,   -0.1,   -0.1,   -0.1,   -0.0,   -0.1,   -0.3,   -0.0,   -0.1,   -0.1,   -0.2,   -0.1,    0.0,   -0.2,   -0.1,   -0.3,   -0.2,   -0.4,   -0.4,   -0.2,    0.1,    0.0,   -0.0,   -0.1,   -0.0,    0.2,    0.1,   -0.1,   -0.0,   -0.0,    0.1,   -0.1,    0.1,    0.0,    0.1,    0.0,   -0.0,    0.0,   -0.1,    0.0,   -0.0,   -0.0,  999.0,   -0.1,   -0.0,   -0.0,    0.1,   -0.1,   -0.5,  999.0,  999.0,  999.0,  999.0,  999.0,  999.0,  999.0,  999.0,  999.0
2015/02/15 20:50,  999.0,  999.0,    0.0,   -0.1,   -0.0,   -0.1,  999.0,    0.0,    0.1,   -0.0,   -0.0,    0.0,    0.1,    0.2,    0.1,   -0.1,    0.1,   -0.1,    0.1,   -0.0,    0.0,    0.1,    0.1,   -0.1,   -0.0,   -0.0,    0.0,    0.2,    0.0,   -0.0,   -0.1,   -0.0,   -0.0,    0.0,    0.1,    0.0,    0.2,    0.0,   -0.1,   -0.0,   -0.2,   -0.3,   -0.1,    0.0,    0.0,    0.0,  999.0,   -0.1,   -0.0,   -0.0,    0.0,    0.3,   -0.0,   -0.0,   -0.0,    0.0,   -0.0,    0.2,    0.1,    0.1,    0.2,    0.1,    0.0,   -0.2,    0.0,    0.1,    0.0,    0.1,    0.4,   -0.2,    0.4,  999.0,   -0.1,  999.0,    0.0,  999.0,  999.0,  999.0,  999.0,  999.0
2015/02/15 21:00,  999.0,  999.0,   -0.0,   -0.1,  999.0,   -0.1,   -0.2,    0.1,   -0.1,    0.1,    0.2,    0.0,    0.0,    0.0,    0.0,   -0.0,   -0.0,    0.0,    0.1,   -0.1,   -0.1,   -0.0,   -0.1,   -0.1,    0.0,    0.0,    0.1,    0.0,    0.0,    0.1,    0.2,    0.2,    0.0,   -0.0,   -0.0,   -0.2,   -0.2,    0.2,   -0.1,    0.1,   -0.2,   -0.2,   -0.0,    0.0,   -0.1,    0.2,    0.3,    0.2,   -0.0,    0.0,   -0.0,    0.0,   -0.0,    0.0,    0.1,    0.2,    0.0,   -0.0,    0.3,   -0.0,    0.3,    0.0,    0.1,    0.0,   -0.1,    0.1,   -0.2,    0.2,    0.0,    0.2,    0.3,   -0.0,    0.4,  999.0,  999.0,  999.0,  999.0,  999.0,  999.0,  999.0
2015/02/15 21:10,  999.0,  999.0,   -0.1,   -0.0,  999.0,  999.0,    0.0,    0.1,   -0.0,   -0.0,   -0.0,   -0.0,   -0.2,   -0.0,   -0.3,    0.0,    0.0,   -0.0,   -0.2,   -0.1,   -0.1,   -0.0,    0.0,   -0.0,   -0.0,    0.0,   -0.1,   -0.1,   -0.0,   -0.0,   -0.0,    0.0,    0.1,    0.1,   -0.0,   -0.1,    0.1,   -0.1,    0.1,   -0.1,   -0.1,   -0.2,   -0.0,   -0.0,    0.1,   -0.0,   -0.1,   -0.1,    0.0,    0.1,    0.0,   -0.1,   -0.1,    0.0,   -0.1,    0.1,   -0.1,   -0.1,   -0.2,   -0.1,   -0.1,   -0.1,    0.2,    0.1,    0.1,    0.2,    0.0,   -0.2,    0.4,   -0.4,    0.2,    0.1,   -0.1,  999.0,   -0.1,  999.0,  999.0,  999.0,  999.0,  999.0
2015/02/15 21:20,  999.0,  999.0,    0.0,   -0.1,   -0.0,   -0.1,  999.0,   -0.1,  999.0,   -0.0,   -0.1,   -0.0,   -0.1,    0.1,    0.1,    0.1,   -0.0,   -0.1,   -0.1,   -0.1,   -0.1,   -0.0,    0.1,    0.1,    0.1,    0.0,    0.0,   -0.0,    0.0,    0.0,    0.0,    0.1,    0.1,    0.0,   -0.0,   -0.0,    0.0,   -0.1,   -0.2,   -0.3,   -0.1,    0.0,   -0.1,   -0.0,    0.0,   -0.1,    0.0,    0.0,   -0.1,    0.0,   -0.1,   -0.0,    0.0,    0.1,   -0.0,   -0.1,   -0.1,   -0.0,   -0.0,    0.0,   -0.0,   -0.3,   -0.1,    0.0,    0.1,    0.1,   -0.0,   -0.0,   -0.2,   -0.1,    0.1,    0.3,   -0.2,   -0.3,  999.0,  999.0,  999.0,  999.0,  999.0,  999.0
2015/02/15 21:30,  999.0,  999.0,   -0.0,   -0.1,   -0.0,   -0.1,   -0.0,   -0.1,   -0.0,    0.0,  999.0,    0.1,  999.0,    0.0,   -0.1,   -0.1,    0.1,   -0.1,    0.0,   -0.0,    0.0,   -0.1,    0.0,   -0.0,   -0.0,    0.0,    0.1,    0.1,    0.0,    0.1,   -0.1,   -0.0,    0.0,   -0.0,   -0.1,   -0.0,    0.0,   -0.2,   -0.1,   -0.1,   -0.0,   -0.1,   -0.2,   -0.0,   -0.1,   -0.1,    0.1,   -0.0,   -0.0,    0.0,    0.0,    0.1,   -0.0,   -0.1,    0.1,    0.1,   -0.0,   -0.1,    0.1,    0.0,   -0.1,    0.1,    0.0,    0.0,    0.1,    0.0,   -0.1,   -0.2,   -0.1,   -0.0,   -0.1,   -0.0,   -0.1,   -0.1,  999.0,  999.0,  999.0,  999.0,  999.0,  999.0
2015/02/15 21:40,  999.0,    0.1,   -0.2,   -0.1,   -0.1,    0.0,    0.0,    0.2,    0.2,    0.4,    0.6,    0.4,    0.3,    0.3,    0.1,   -0.0,    0.1,  999.0,    0.1,   -0.0,    0.0,    0.1,    0.0,   -0.1,   -0.2,   -0.1,   -0.1,   -0.0,    0.1,    0.1,   -0.2,    0.1,   -0.1,    0.0,   -0.3,   -0.2,   -0.1,   -0.0,    0.1,    0.1,    0.0,   -0.0,   -0.1,   -0.0,   -0.1,   -0.1,    0.1,   -0.0,   -0.0,   -0.1,   -0.1,   -0.1,   -0.1,   -0.0,    0.1,   -0.0,   -0.1,    0.1,   -0.1,   -0.0,   -0.1,    0.1,    0.1,    0.0,    0.1,    0.0,   -0.1,    0.1,    0.1,    0.0,   -0.1,    0.0,   -0.0,    0.0,  999.0,  999.0,  999.0,  999.0,  999.0,  999.0
2015/02/15 21:50,  999.0,   -0.0,   -0.0,   -0.1,    0.1,   -0.1,   -0.0,   -0.0,    0.2,    0.3,    1.1,    1.1,    0.7,   -0.1,   -0.1,   -0.0,    0.0,    0.1,    0.0,   -0.0,    0.1,   -0.1,    0.1,    0.1,    0.0,    0.0,   -0.1,    0.1,   -0.0,    0.1,    0.1,    0.2,    0.1,    0.0,   -0.1,    0.0,    0.1,    0.1,   -0.1,   -0.0,   -0.0,   -0.0,   -0.1,    0.0,   -0.0,   -0.0,   -0.1,    0.0,   -0.0,    0.0,   -0.0,   -0.0,   -0.1,   -0.1,   -0.0,   -0.1,   -0.1,    0.0,    0.0,   -0.2,    0.0,   -0.1,   -0.1,   -0.0,   -0.1,   -0.1,   -0.1,   -0.2,   -0.1,   -0.0,    0.2,   -0.0,   -0.1,  999.0,  999.0,  999.0,  999.0,  999.0,  999.0,  999.0
2015/02/15 22:00,  999.0,    0.1,    0.3,    0.3,    0.2,    0.0,    0.3,    0.3,    0.6,    0.8,    1.4,    2.8,  999.0,    1.6,    0.3,    0.2,    0.1,    0.0,    0.0,    0.1,    0.0,    0.2,    0.0,   -0.0,    0.0,    0.0,    0.0,    0.2,    0.1,   -0.0,    0.2,    0.1,   -0.0,   -0.1,    0.1,    0.0,   -0.0,   -0.1,    0.0,    0.1,   -0.0,   -0.2,   -0.2,   -0.0,   -0.1,    0.0,   -0.1,   -0.1,   -0.1,    0.2,    0.0,    0.0,   -0.0,   -0.1,    0.0,   -0.1,    0.0,   -0.2,    0.2,    0.2,    0.0,   -0.0,    0.1,   -0.1,  999.0,   -0.0,    0.0,   -0.0,   -0.1,   -0.0,   -0.0,    0.2,    0.2,  999.0,  999.0,  999.0,  999.0,  999.0,  999.0,  999.0
2015/02/15 22:10,  999.0,    0.2,    0.3,    0.6,    0.3,    0.2,    0.2,    0.1,    0.6,    0.9,    1.2,    1.3,    3.8,  999.0,    2.5,    1.2,    1.3,    0.4,    0.1,    0.1,    0.2,    0.0,    0.1,   -0.1,   -0.0,   -0.1,   -0.3,   -0.0,   -0.0,    0.0,    0.1,    0.1,  999.0,  999.0,   -0.0,    0.1,    0.3,   -0.0,    0.0,   -0.0,    0.1,   -0.1,    0.2,   -0.0,    0.0,    0.0,   -0.2,    0.1,    0.1,    0.1,    0.1,   -0.1,   -0.0,   -0.0,    0.1,   -0.3,   -0.0,   -0.0,   -0.1,   -0.2,   -0.1,   -0.1,    0.1,   -0.0,    0.2,   -0.1,    0.2,   -0.2,  999.0,  999.0,  999.0,  999.0,  999.0,    0.4,  999.0,  999.0,  999.0,  999.0,  999.0,  999.0
2015/02/15 22:20,  999.0,    0.1,    0.0,    0.3,    0.1,    0.4,    0.4,    0.4,    0.5,    0.7,    0.8,    1.2,    1.8,    2.2,    2.6,    1.4,    0.7,    0.1,    0.0,   -0.0,   -0.1,   -0.1,   -0.2,   -0.1,   -0.2,    0.2,    0.1,    0.4,    0.2,    0.3,    0.1,   -0.0,    0.1,    0.2,  999.0,    0.1,   -0.1,    0.0,    0.3,   -0.2,   -0.5,   -0.2,   -0.0,   -0.0,    0.2,    0.0,    0.1,    0.1,   -0.1,   -0.2,   -0.0,   -0.1,   -0.0,   -0.1,   -0.1,   -0.0,   -0.0,   -0.0,   -0.1,   -0.1,   -0.2,   -0.1,   -0.1,    0.2,  999.0,    0.1,    0.2,   -0.2,  999.0,   -0.1,   -0.0,    0.2,  999.0,  999.0,  999.0,  999.0,  999.0,  999.0,  999.0,  999.0
2015/02/15 22:30,  999.0,    0.3,    0.4,    0.3,    0.3,    0.2,    0.3,    0.3,    0.5,    0.7,    1.0,    0.9,    0.7,    0.3,    0.3,    0.2,    0.1,    0.1,   -0.0,    0.0,    0.0,   -0.2,    0.1,    0.1,   -0.0,   -0.0,    0.0,    0.1,    0.0,   -0.0,    0.0,    0.0,    0.0,  999.0,    0.7,    0.1,   -0.6,  999.0,   -0.2,    0.2,   -0.3,   -0.0,    0.0,    0.1,   -0.2,    0.1,    0.3,    0.0,   -0.1,    0.2,    0.0,   -0.0,   -0.0,    0.2,   -0.2,    0.1,    0.1,   -0.1,    0.2,    0.0,    0.2,   -0.1,    0.1,   -0.0,   -0.3,   -0.1,  999.0,    0.2,  999.0,  999.0,  999.0,  999.0,   -0.2,  999.0,  999.0,  999.0,  999.0,  999.0,  999.0,  999.0
2015/02/15 22:40,  999.0,  999.0,  999.0,    0.0,   -0.2,  999.0,  999.0,    0.1,   12.8,   10.2,   12.5,    0.3,  999.0,   -0.1,   -0.1,   -0.0,   -0.1,  999.0,  999.0,   -0.0,   -0.1,   -0.0,    0.1,    0.1,    0.0,   -0.1,   -0.0,    0.2,   -0.0,    0.1,    0.0,    0.4,   -0.2,  999.0,  999.0,   -0.1,  999.0,   -0.2,    0.0,   -0.2,   -0.2,   -0.3,   -0.1,    0.1,   -0.2,    0.0,    0.0,    0.1,    0.2,    0.4,   -0.0,  999.0,  999.0,    0.1,    0.2,    0.3,   -0.1,    0.0,    0.5,    0.2,   -0.2,  999.0,  999.0,  999.0,    0.1,  999.0,  999.0,  999.0,  999.0,  999.0,  999.0,  999.0,  999.0,    0.4,    0.1,  999.0,  999.0,  999.0,  999.0,  999.0
2015/02/15 22:50,  999.0,  999.0,  999.0,    0.2,    0.2,    0.4,    0.2,    3.6,    4.2,    3.6,    4.4,    1.6,    1.4,   -0.2,    0.1,    0.0,    0.0,    0.0,   -0.1,   -0.0,    0.0,    0.2,    0.1,    0.1,    0.2,    0.1,    0.0,    0.2,    0.5,    0.1,   -0.0,    0.3,   -0.3,  999.0,  999.0,    0.2,  999.0,    0.3,    0.1,  999.0,    0.2,   -0.2,   -0.0,    0.2,    0.4,    0.2,    0.2,  999.0,    0.1,    0.2,    0.3,    0.2,   -0.2,    0.1,    0.0,   -0.1,   -0.2,    0.1,    0.0,   -0.1,    0.3,    0.1,    0.1,    0.1,   -0.3,  999.0,    0.2,  999.0,  999.0,  999.0,    0.0,  999.0,   -0.3,  999.0,  999.0,  999.0,  999.0,  999.0,  999.0,  999.0
2015/02/15 23:00,  999.0,  999.0,    0.7,    0.6,    0.4,    0.8,    0.6,    0.2,    0.2,    0.5,    4.2,    1.5,    0.9,    0.5,   -0.0,   -0.1,   -0.0,   -0.0,    0.0,   -0.0,   -0.0,   -0.1,   -0.1,   -0.0,    0.1,    0.1,    0.1,    0.2,   -0.0,    0.1,   -0.1,    0.2,  999.0,  999.0,  999.0,  999.0,   -0.2,   -0.0,   -0.2,   -0.2,   -0.2,   -0.0,   -0.1,    0.5,  999.0,    0.3,    0.2,    0.3,   -0.2,   -0.0,   -0.2,   -0.0,  999.0,    0.2,   -0.5,  999.0,   -0.2,   -0.5,   -0.1,   -0.2,   -0.3,    0.1,    0.1,    0.3,  999.0,  999.0,  999.0,  999.0,  999.0,  999.0,    0.3,  999.0,  999.0,  999.0,  999.0,  999.0,  999.0,  999.0,  999.0,  999.0
2015/02/15 23:10,  999.0,    0.3,    0.5,    0.7,    0.2,    0.1,  999.0,   -0.5,  999.0,  999.0,  999.0,  999.0,  999.0,  999.0,  999.0,    0.0,    0.0,    0.1,   -0.1,   -0.1,   -0.0,    0.0,    0.1,   -0.1,    0.0,   -0.1,    0.0,    0.1,   -0.2,   -0.2,    0.0,   -0.2,   -0.1,   -0.1,    0.0,   -0.2,  999.0,    0.3,    0.2,    0.3,    0.2,   -0.0,    0.1,   -0.3,   -0.3,    0.2,  999.0,    0.2,   -0.0,   -0.2,   -0.3,   -0.0,    0.1,    0.3,   -0.3,    0.1,    0.2,    0.4,   -0.0,    0.2,    0.3,    0.2,    0.4,    0.1,  999.0,  999.0,  999.0,  999.0,  999.0,  999.0,  999.0,  999.0,   -0.2,  999.0,  999.0,  999.0,  999.0,  999.0,  999.0,  999.0
2015/02/15 23:20,  999.0,  999.0,    0.2,    0.0,    0.2,    0.3,    0.4,    0.7,    0.4,    0.6,    1.5,    0.7,  999.0,  999.0,   -0.2,    0.3,    0.7,    0.1,    0.3,    0.1,   -0.1,   -0.2,    0.1,   -0.2,    0.0,    0.2,    0.8,    0.3,    0.1,    0.1,    0.0,   -0.3,   -0.0,    0.2,    0.3,   -0.0,    0.0,  999.0,   -0.1,    0.2,    0.6,   -0.1,   -0.2,   -0.0,  999.0,    0.1,    0.2,    0.1,   -0.0,    0.3,    0.3,    0.3,    0.3,    0.0,   -0.1,    0.2,   -0.1,    0.3,   -0.1,   -0.1,    0.1,  999.0,  999.0,  999.0,    0.0,  999.0,  999.0,  999.0,  999.0,  999.0,  999.0,  999.0,  999.0,  999.0,   -0.2,  999.0,  999.0,  999.0,  999.0,  999.0
2015/02/15 23:30,  999.0,    0.0,    0.3,    0.3,    0.7,    0.4,    0.4,    0.5,    0.7,    0.5,    0.7,   -0.2,    1.2,  999.0,    1.7,    0.4,    0.1,    0.3,   -0.1,   -0.1,    0.2,    0.2,  999.0,   -0.0,    0.1,    0.5,    0.3,    0.2,    0.2,   -0.6,   -0.7,   -0.1,   -0.2,    0.2,  999.0,  999.0,    0.3,   -0.0,   -0.0,   -0.1,   -0.4,   -0.2,   -0.0,    0.2,    0.2,    0.2,   -0.0,  999.0,  999.0,    0.1,   -0.2,   -0.2,  999.0,  999.0,  999.0,  999.0,  999.0,  999.0,  999.0,  999.0,  999.0,  999.0,  999.0,  999.0,  999.0,  999.0,  999.0,  999.0,  999.0,  999.0,  999.0,  999.0,  999.0,  999.0,  999.0,  999.0,  999.0,  999.0,  999.0,  999.0
2015/02/15 23:40,  999.0,   -0.1,    0.1,   -0.0,    0.2,   -0.2,   -0.0,    0.2,    0.3,    0.2,    0.5,    1.5,    2.1,    0.6,    1.1,    0.5,    0.2,   -0.0,   -0.0,   -0.0,   -0.0,    0.1,    0.0,    0.0,   -0.1,    0.2,    0.2,    0.3,    0.4,    0.3,    0.1,   -0.1,    0.2,    0.2,    0.2,    0.4,    0.2,   -0.4,   -0.2,   -0.0,   -0.1,   -0.1,   -0.2,   -0.0,    0.1,    0.2,   -0.2,   -0.1,   -0.1,   -0.3,  999.0,   -0.2,   -0.2,  999.0,  999.0,    0.5,   -0.0,  999.0,  999.0,  999.0,  999.0,  999.0,  999.0,  999.0,  999.0,  999.0,  999.0,  999.0,  999.0,  999.0,  999.0,  999.0,  999.0,  999.0,  999.0,  999.0,  999.0,  999.0,  999.0,  999.0
2015/02/15 23:50,  999.0,  999.0,   -0.5,   -0.2,  999.0,  999.0,  999.0,  999.0,  999.0,  999.0,  999.0,  999.0,  999.0,  999.0,    0.3,    0.2,    0.1,    0.5,   -0.1,   -0.0,    0.1,   -0.0,   -0.0,    0.0,    0.3,   -0.1,    0.1,    0.2,   -0.0,    0.0,    0.1,    0.3,    0.3,    0.4,    0.1,   -0.5,   -0.3,   -0.0,    0.0,   -0.1,  999.0,   -0.4,   -0.2,   -0.1,  999.0,   -0.2,   -0.3,    0.0,    0.1,    0.0,    0.0,   -0.2,   -0.1,   -0.1,  999.0,    0.2,   -0.0,  999.0,  999.0,  999.0,    0.4,  999.0,  999.0,   -0.4,  999.0,  999.0,  999.0,  999.0,  999.0,  999.0,  999.0,  999.0,  999.0,  999.0,  999.0,  999.0,  999.0,  999.0,  999.0,  999.0
